Wetterdaten: Mittwoch, 06.09.2017
Datum Zeit Temp. Aussen Temp. o. S. +5cm Feuchte Auss BlattFeu 1 Luftdruck Regen Sonnenschein Regendauer Solar Windben Empfang
06.09.2017 00:00 19,1 C 18,9 C 16,1 C 88 % 0 lf 1014,1 hPa 0,0 l/m 0 min 0 min 0 W/m 14,6 km/h (3 Bft) 95,74 %
06.09.2017 00:02 19,1 C 18,9 C 16,1 C 88 % 0 lf 1014,1 hPa 0,0 l/m 0 min 0 min 0 W/m 14,6 km/h (3 Bft) 97,73 %
06.09.2017 00:04 19,1 C 18,9 C 16,1 C 88 % 0 lf 1014,1 hPa 0,0 l/m 0 min 0 min 0 W/m 6,3 km/h (2 Bft) 97,83 %
06.09.2017 00:08 19,1 C 18,9 C 16,1 C 88 % 0 lf 1014,0 hPa 0,0 l/m 0 min 0 min 0 W/m 10,5 km/h (2 Bft) 97,62 %
06.09.2017 00:10 19,1 C 18,3 C 16,1 C 87 % 0 lf 1014,1 hPa 0,0 l/m 0 min 0 min 0 W/m 16,7 km/h (3 Bft) 95,74 %
06.09.2017 00:12 19,0 C 18,3 C 16,1 C 87 % 0 lf 1014,0 hPa 0,0 l/m 0 min 0 min 0 W/m 14,6 km/h (3 Bft) 93,62 %
06.09.2017 00:14 19,0 C 18,3 C 16,1 C 87 % 0 lf 1014,0 hPa 0,0 l/m 0 min 0 min 0 W/m 6,3 km/h (2 Bft) 95,74 %
06.09.2017 00:16 19,0 C 18,3 C 16,1 C 87 % 0 lf 1014,0 hPa 0,0 l/m 0 min 0 min 0 W/m 12,6 km/h (3 Bft) 95,74 %
06.09.2017 00:18 18,9 C 18,3 C 16,1 C 87 % 0 lf 1014,0 hPa 0,0 l/m 0 min 0 min 0 W/m 10,5 km/h (2 Bft) 97,87 %
06.09.2017 00:20 18,9 C 18,3 C 16,1 C 87 % 0 lf 1014,0 hPa 0,0 l/m 0 min 0 min 0 W/m 8,4 km/h (2 Bft) 95,65 %
06.09.2017 00:22 18,9 C 18,3 C 16,1 C 87 % 0 lf 1014,0 hPa 0,0 l/m 0 min 0 min 0 W/m 10,5 km/h (2 Bft) 95,74 %
06.09.2017 00:24 18,9 C 18,3 C 15,6 C 87 % 0 lf 1013,9 hPa 0,0 l/m 0 min 0 min 0 W/m 8,4 km/h (2 Bft) 93,62 %
06.09.2017 00:26 18,9 C 18,3 C 15,6 C 87 % 0 lf 1014,0 hPa 0,0 l/m 0 min 0 min 0 W/m 6,3 km/h (2 Bft) 93,62 %
06.09.2017 00:28 18,9 C 18,3 C 15,6 C 87 % 0 lf 1014,0 hPa 0,0 l/m 0 min 0 min 0 W/m 8,4 km/h (2 Bft) 93,62 %
06.09.2017 00:30 18,9 C 18,3 C 15,6 C 87 % 1 lf 1014,0 hPa 0,0 l/m 0 min 0 min 0 W/m 6,3 km/h (2 Bft) 93,62 %
06.09.2017 00:32 18,9 C 17,8 C 15,6 C 87 % 1 lf 1014,0 hPa 0,0 l/m 0 min 0 min 0 W/m 4,2 km/h (1 Bft) 95,65 %
06.09.2017 00:34 18,9 C 17,8 C 15,6 C 87 % 1 lf 1014,0 hPa 0,0 l/m 0 min 0 min 0 W/m 4,2 km/h (1 Bft) 93,62 %
06.09.2017 00:36 18,9 C 17,8 C 15,6 C 87 % 1 lf 1014,0 hPa 0,0 l/m 0 min 0 min 0 W/m 4,2 km/h (1 Bft) 93,62 %
06.09.2017 00:38 18,8 C 17,8 C 15,6 C 87 % 1 lf 1014,0 hPa 0,0 l/m 0 min 0 min 0 W/m 4,2 km/h (1 Bft) 93,62 %
06.09.2017 00:40 18,8 C 17,8 C 15,6 C 87 % 1 lf 1014,0 hPa 0,0 l/m 0 min 0 min 0 W/m 4,2 km/h (1 Bft) 93,62 %
06.09.2017 00:42 18,8 C 17,8 C 15,6 C 87 % 1 lf 1013,9 hPa 0,0 l/m 0 min 0 min 0 W/m 2,1 km/h (1 Bft) 89,36 %
06.09.2017 00:44 18,8 C 17,8 C 15,6 C 87 % 1 lf 1014,0 hPa 0,0 l/m 0 min 0 min 0 W/m 4,2 km/h (1 Bft) 89,13 %
06.09.2017 00:46 18,8 C 17,8 C 15,6 C 87 % 1 lf 1014,0 hPa 0,0 l/m 0 min 0 min 0 W/m 2,1 km/h (1 Bft) 93,62 %
06.09.2017 00:48 18,8 C 17,2 C 15,6 C 88 % 1 lf 1013,9 hPa 0,0 l/m 0 min 0 min 0 W/m 4,2 km/h (1 Bft) 89,36 %
06.09.2017 00:50 18,8 C 17,2 C 15,6 C 88 % 1 lf 1014,0 hPa 0,0 l/m 0 min 0 min 0 W/m 4,2 km/h (1 Bft) 93,62 %
06.09.2017 00:52 18,8 C 17,2 C 15,6 C 88 % 1 lf 1014,0 hPa 0,0 l/m 0 min 0 min 0 W/m 6,3 km/h (2 Bft) 93,62 %
06.09.2017 00:54 18,7 C 17,2 C 15,6 C 88 % 1 lf 1014,0 hPa 0,0 l/m 0 min 0 min 0 W/m 4,2 km/h (1 Bft) 91,30 %
06.09.2017 00:56 18,7 C 17,2 C 15,6 C 88 % 1 lf 1014,0 hPa 0,0 l/m 0 min 0 min 0 W/m 4,2 km/h (1 Bft) 93,62 %
06.09.2017 00:58 18,7 C 17,2 C 15,6 C 88 % 1 lf 1013,9 hPa 0,0 l/m 0 min 0 min 0 W/m 4,2 km/h (1 Bft) 91,49 %
06.09.2017 01:00 18,7 C 17,2 C 15,6 C 89 % 1 lf 1013,9 hPa 0,0 l/m 0 min 0 min 0 W/m 2,1 km/h (1 Bft) 93,62 %
06.09.2017 01:02 18,6 C 17,2 C 15,6 C 89 % 1 lf 1013,9 hPa 0,0 l/m 0 min 0 min 0 W/m 4,2 km/h (1 Bft) 93,62 %
06.09.2017 01:04 18,6 C 17,2 C 15,0 C 89 % 1 lf 1013,9 hPa 0,0 l/m 0 min 0 min 0 W/m 4,2 km/h (1 Bft) 89,36 %
06.09.2017 01:06 18,6 C 17,2 C 15,0 C 89 % 1 lf 1013,8 hPa 0,0 l/m 0 min 0 min 0 W/m 4,2 km/h (1 Bft) 91,30 %
06.09.2017 01:08 18,5 C 17,2 C 15,0 C 89 % 1 lf 1013,8 hPa 0,0 l/m 0 min 0 min 0 W/m 6,3 km/h (2 Bft) 93,62 %
06.09.2017 01:10 18,5 C 17,2 C 15,0 C 89 % 1 lf 1013,8 hPa 0,0 l/m 0 min 0 min 0 W/m 6,3 km/h (2 Bft) 93,62 %
06.09.2017 01:12 18,4 C 17,2 C 15,0 C 89 % 1 lf 1013,8 hPa 0,0 l/m 0 min 0 min 0 W/m 6,3 km/h (2 Bft) 91,49 %
06.09.2017 01:14 18,4 C 17,2 C 15,0 C 89 % 1 lf 1013,9 hPa 0,0 l/m 0 min 0 min 0 W/m 6,3 km/h (2 Bft) 95,74 %
06.09.2017 01:16 18,4 C 17,2 C 15,0 C 89 % 1 lf 1013,8 hPa 0,0 l/m 0 min 0 min 0 W/m 10,5 km/h (2 Bft) 97,87 %
06.09.2017 01:18 18,3 C 17,2 C 15,0 C 89 % 1 lf 1013,8 hPa 0,0 l/m 0 min 0 min 0 W/m 6,3 km/h (2 Bft) 97,83 %
06.09.2017 01:20 18,3 C 17,2 C 15,0 C 89 % 1 lf 1013,8 hPa 0,0 l/m 0 min 0 min 0 W/m 4,2 km/h (1 Bft) 95,74 %
06.09.2017 01:22 18,3 C 17,2 C 15,0 C 89 % 1 lf 1013,8 hPa 0,0 l/m 0 min 0 min 0 W/m 6,3 km/h (2 Bft) 97,87 %
06.09.2017 01:24 18,2 C 17,2 C 15,0 C 89 % 1 lf 1013,7 hPa 0,0 l/m 0 min 0 min 0 W/m 8,4 km/h (2 Bft) 97,87 %
06.09.2017 01:26 18,2 C 17,2 C 15,0 C 89 % 1 lf 1013,9 hPa 0,0 l/m 0 min 0 min 0 W/m 4,2 km/h (1 Bft) 100,00 %
06.09.2017 01:28 18,2 C 17,2 C 15,0 C 89 % 1 lf 1013,9 hPa 0,0 l/m 0 min 0 min 0 W/m 6,3 km/h (2 Bft) 100,00 %
06.09.2017 01:30 18,2 C 17,2 C 15,6 C 89 % 1 lf 1013,9 hPa 0,0 l/m 0 min 0 min 0 W/m 6,3 km/h (2 Bft) 97,83 %
06.09.2017 01:32 18,1 C 17,2 C 15,6 C 89 % 1 lf 1013,8 hPa 0,0 l/m 0 min 0 min 0 W/m 6,3 km/h (2 Bft) 100,00 %
06.09.2017 01:34 18,1 C 17,8 C 15,6 C 89 % 1 lf 1013,8 hPa 0,0 l/m 0 min 0 min 0 W/m 12,6 km/h (3 Bft) 100,00 %
06.09.2017 01:36 18,1 C 17,8 C 15,6 C 90 % 1 lf 1013,8 hPa 0,0 l/m 0 min 0 min 0 W/m 6,3 km/h (2 Bft) 100,00 %
06.09.2017 01:38 18,1 C 17,2 C 15,6 C 90 % 1 lf 1013,7 hPa 0,0 l/m 0 min 0 min 0 W/m 6,3 km/h (2 Bft) 100,00 %
06.09.2017 01:40 18,1 C 17,2 C 15,6 C 90 % 1 lf 1013,7 hPa 0,0 l/m 0 min 0 min 0 W/m 4,2 km/h (1 Bft) 97,87 %
06.09.2017 01:42 18,0 C 17,2 C 15,0 C 90 % 1 lf 1013,6 hPa 0,0 l/m 0 min 0 min 0 W/m 6,3 km/h (2 Bft) 100,00 %
06.09.2017 01:44 18,0 C 17,2 C 15,0 C 90 % 1 lf 1013,7 hPa 0,0 l/m 0 min 0 min 0 W/m 6,3 km/h (2 Bft) 100,00 %
06.09.2017 01:46 18,0 C 17,2 C 15,0 C 90 % 1 lf 1013,6 hPa 0,0 l/m 0 min 0 min 0 W/m 4,2 km/h (1 Bft) 97,87 %
06.09.2017 01:48 18,0 C 16,7 C 15,0 C 90 % 1 lf 1013,6 hPa 0,0 l/m 0 min 0 min 0 W/m 4,2 km/h (1 Bft) 100,00 %
06.09.2017 01:50 17,9 C 16,7 C 15,0 C 90 % 1 lf 1013,6 hPa 0,0 l/m 0 min 0 min 0 W/m 4,2 km/h (1 Bft) 100,00 %
06.09.2017 01:52 17,9 C 16,7 C 15,0 C 90 % 1 lf 1013,5 hPa 0,0 l/m 0 min 0 min 0 W/m 4,2 km/h (1 Bft) 100,00 %
06.09.2017 01:54 17,9 C 16,7 C 15,0 C 90 % 1 lf 1013,5 hPa 0,0 l/m 0 min 0 min 0 W/m 2,1 km/h (1 Bft) 100,00 %
06.09.2017 01:56 17,9 C 16,7 C 15,0 C 90 % 1 lf 1013,5 hPa 0,0 l/m 0 min 0 min 0 W/m 2,1 km/h (1 Bft) 97,87 %
06.09.2017 01:58 17,9 C 16,7 C 15,0 C 90 % 1 lf 1013,5 hPa 0,0 l/m 0 min 0 min 0 W/m 4,2 km/h (1 Bft) 97,87 %
06.09.2017 02:00 17,8 C 16,7 C 15,0 C 90 % 1 lf 1013,5 hPa 0,0 l/m 0 min 0 min 0 W/m 6,3 km/h (2 Bft) 97,87 %
06.09.2017 02:02 17,8 C 16,7 C 15,0 C 90 % 1 lf 1013,4 hPa 0,0 l/m 0 min 0 min 0 W/m 8,4 km/h (2 Bft) 100,00 %
06.09.2017 02:04 17,8 C 17,2 C 15,0 C 90 % 1 lf 1013,4 hPa 0,0 l/m 0 min 0 min 0 W/m 10,5 km/h (2 Bft) 100,00 %
06.09.2017 02:06 17,8 C 17,2 C 15,0 C 90 % 1 lf 1013,4 hPa 0,0 l/m 0 min 0 min 0 W/m 6,3 km/h (2 Bft) 97,87 %
06.09.2017 02:08 17,8 C 17,2 C 15,0 C 90 % 1 lf 1013,4 hPa 0,0 l/m 0 min 0 min 0 W/m 6,3 km/h (2 Bft) 100,00 %
06.09.2017 02:10 17,8 C 17,2 C 15,0 C 90 % 1 lf 1013,4 hPa 0,0 l/m 0 min 0 min 0 W/m 8,4 km/h (2 Bft) 100,00 %
06.09.2017 02:12 17,8 C 17,2 C 15,0 C 90 % 1 lf 1013,4 hPa 0,0 l/m 0 min 0 min 0 W/m 8,4 km/h (2 Bft) 97,87 %
06.09.2017 02:14 17,7 C 17,2 C 15,0 C 91 % 1 lf 1013,4 hPa 0,0 l/m 0 min 0 min 0 W/m 8,4 km/h (2 Bft) 97,87 %
06.09.2017 02:16 17,7 C 17,2 C 15,0 C 91 % 1 lf 1013,3 hPa 0,0 l/m 0 min 0 min 0 W/m 8,4 km/h (2 Bft) 100,00 %
06.09.2017 02:18 17,7 C 17,2 C 15,0 C 91 % 1 lf 1013,4 hPa 0,0 l/m 0 min 0 min 0 W/m 8,4 km/h (2 Bft) 100,00 %
06.09.2017 02:20 17,7 C 17,2 C 15,0 C 91 % 1 lf 1013,4 hPa 0,0 l/m 0 min 0 min 0 W/m 6,3 km/h (2 Bft) 100,00 %
06.09.2017 02:22 17,7 C 17,2 C 15,0 C 91 % 1 lf 1013,4 hPa 0,0 l/m 0 min 0 min 0 W/m 6,3 km/h (2 Bft) 97,87 %
06.09.2017 02:24 17,7 C 17,2 C 15,0 C 91 % 1 lf 1013,4 hPa 0,0 l/m 0 min 0 min 0 W/m 8,4 km/h (2 Bft) 100,00 %
06.09.2017 02:26 17,6 C 17,2 C 15,0 C 91 % 1 lf 1013,4 hPa 0,0 l/m 0 min 0 min 0 W/m 8,4 km/h (2 Bft) 100,00 %
06.09.2017 02:28 17,6 C 17,2 C 15,0 C 91 % 1 lf 1013,4 hPa 0,0 l/m 0 min 0 min 0 W/m 6,3 km/h (2 Bft) 100,00 %
06.09.2017 02:30 17,6 C 17,2 C 15,6 C 91 % 1 lf 1013,3 hPa 0,0 l/m 0 min 0 min 0 W/m 8,4 km/h (2 Bft) 95,74 %
06.09.2017 02:32 17,6 C 17,2 C 15,6 C 91 % 1 lf 1013,3 hPa 0,0 l/m 0 min 0 min 0 W/m 6,3 km/h (2 Bft) 100,00 %
06.09.2017 02:34 17,6 C 17,2 C 15,6 C 91 % 1 lf 1013,3 hPa 0,0 l/m 0 min 0 min 0 W/m 4,2 km/h (1 Bft) 100,00 %
06.09.2017 02:36 17,6 C 17,2 C 15,6 C 91 % 1 lf 1013,2 hPa 0,0 l/m 0 min 0 min 0 W/m 6,3 km/h (2 Bft) 97,87 %
06.09.2017 02:38 17,6 C 17,2 C 15,6 C 91 % 1 lf 1013,2 hPa 0,0 l/m 0 min 0 min 0 W/m 4,2 km/h (1 Bft) 97,87 %
06.09.2017 02:40 17,6 C 17,2 C 15,6 C 91 % 1 lf 1013,2 hPa 0,0 l/m 0 min 0 min 0 W/m 10,5 km/h (2 Bft) 97,83 %
06.09.2017 02:42 17,6 C 17,2 C 15,6 C 91 % 1 lf 1013,2 hPa 0,0 l/m 0 min 0 min 0 W/m 10,5 km/h (2 Bft) 97,87 %
06.09.2017 02:44 17,6 C 17,8 C 15,6 C 91 % 1 lf 1013,2 hPa 0,0 l/m 0 min 0 min 0 W/m 10,5 km/h (2 Bft) 97,87 %
06.09.2017 02:46 17,6 C 17,2 C 15,6 C 91 % 1 lf 1013,2 hPa 0,0 l/m 0 min 0 min 0 W/m 6,3 km/h (2 Bft) 97,87 %
06.09.2017 02:48 17,6 C 17,8 C 15,6 C 91 % 1 lf 1013,1 hPa 0,0 l/m 0 min 0 min 0 W/m 8,4 km/h (2 Bft) 93,62 %
06.09.2017 02:50 17,6 C 17,2 C 15,6 C 91 % 1 lf 1013,0 hPa 0,0 l/m 0 min 0 min 0 W/m 2,1 km/h (1 Bft) 95,74 %
06.09.2017 02:52 17,6 C 17,2 C 15,6 C 91 % 1 lf 1013,1 hPa 0,0 l/m 0 min 0 min 0 W/m 4,2 km/h (1 Bft) 95,65 %
06.09.2017 02:54 17,6 C 17,2 C 15,6 C 91 % 1 lf 1013,1 hPa 0,0 l/m 0 min 0 min 0 W/m 6,3 km/h (2 Bft) 95,74 %
06.09.2017 02:56 17,6 C 17,2 C 15,6 C 92 % 1 lf 1013,0 hPa 0,0 l/m 0 min 0 min 0 W/m 4,2 km/h (1 Bft) 95,74 %
06.09.2017 02:58 17,6 C 17,2 C 15,6 C 92 % 1 lf 1013,0 hPa 0,0 l/m 0 min 0 min 0 W/m 8,4 km/h (2 Bft) 93,62 %
06.09.2017 03:00 17,6 C 17,2 C 15,6 C 92 % 1 lf 1013,0 hPa 0,0 l/m 0 min 0 min 0 W/m 6,3 km/h (2 Bft) 95,74 %
06.09.2017 03:02 17,7 C 17,2 C 15,6 C 92 % 1 lf 1012,9 hPa 0,0 l/m 0 min 0 min 0 W/m 6,3 km/h (2 Bft) 93,48 %
06.09.2017 03:04 17,6 C 17,2 C 15,0 C 92 % 1 lf 1012,9 hPa 0,0 l/m 0 min 0 min 0 W/m 6,3 km/h (2 Bft) 93,62 %
06.09.2017 03:06 17,6 C 17,2 C 15,0 C 92 % 1 lf 1012,9 hPa 0,0 l/m 0 min 0 min 0 W/m 8,4 km/h (2 Bft) 95,74 %
06.09.2017 03:08 17,6 C 17,2 C 15,0 C 92 % 1 lf 1012,9 hPa 0,0 l/m 0 min 0 min 0 W/m 6,3 km/h (2 Bft) 95,74 %
06.09.2017 03:10 17,6 C 17,2 C 15,0 C 92 % 1 lf 1012,8 hPa 0,0 l/m 0 min 0 min 0 W/m 4,2 km/h (1 Bft) 95,74 %
06.09.2017 03:12 17,6 C 17,2 C 15,0 C 91 % 1 lf 1012,8 hPa 0,0 l/m 0 min 0 min 0 W/m 8,4 km/h (2 Bft) 95,74 %
06.09.2017 03:14 17,6 C 17,2 C 15,0 C 91 % 1 lf 1012,8 hPa 0,0 l/m 0 min 0 min 0 W/m 10,5 km/h (2 Bft) 97,83 %
06.09.2017 03:16 17,6 C 17,2 C 15,0 C 91 % 1 lf 1012,8 hPa 0,0 l/m 0 min 0 min 0 W/m 10,5 km/h (2 Bft) 97,87 %
06.09.2017 03:18 17,6 C 17,2 C 15,0 C 91 % 1 lf 1012,7 hPa 0,0 l/m 0 min 0 min 0 W/m 8,4 km/h (2 Bft) 97,87 %
06.09.2017 03:20 17,6 C 17,2 C 15,0 C 91 % 1 lf 1012,8 hPa 0,0 l/m 0 min 0 min 0 W/m 12,6 km/h (3 Bft) 95,74 %
06.09.2017 03:22 17,6 C 17,2 C 15,0 C 91 % 1 lf 1012,8 hPa 0,0 l/m 0 min 0 min 0 W/m 6,3 km/h (2 Bft) 91,49 %
06.09.2017 03:24 17,6 C 17,2 C 15,0 C 91 % 1 lf 1012,7 hPa 0,0 l/m 0 min 0 min 0 W/m 12,6 km/h (3 Bft) 97,87 %
06.09.2017 03:26 17,6 C 17,2 C 15,6 C 91 % 1 lf 1012,7 hPa 0,0 l/m 0 min 0 min 0 W/m 12,6 km/h (3 Bft) 95,65 %
06.09.2017 03:28 17,6 C 17,2 C 15,0 C 91 % 1 lf 1012,8 hPa 0,0 l/m 0 min 0 min 0 W/m 8,4 km/h (2 Bft) 93,62 %
06.09.2017 03:30 17,6 C 17,2 C 15,0 C 91 % 1 lf 1012,8 hPa 0,0 l/m 0 min 0 min 0 W/m 10,5 km/h (2 Bft) 95,74 %
06.09.2017 03:32 17,6 C 17,2 C 15,6 C 91 % 1 lf 1012,7 hPa 0,0 l/m 0 min 0 min 0 W/m 12,6 km/h (3 Bft) 95,74 %
06.09.2017 03:34 17,6 C 17,2 C 15,0 C 91 % 1 lf 1012,7 hPa 0,0 l/m 0 min 0 min 0 W/m 12,6 km/h (3 Bft) 95,74 %
06.09.2017 03:36 17,6 C 17,2 C 15,6 C 91 % 1 lf 1012,7 hPa 0,0 l/m 0 min 0 min 0 W/m 12,6 km/h (3 Bft) 93,62 %
06.09.2017 03:38 17,6 C 17,2 C 15,6 C 91 % 1 lf 1012,7 hPa 0,0 l/m 0 min 0 min 0 W/m 14,6 km/h (3 Bft) 97,83 %
06.09.2017 03:40 17,6 C 17,2 C 15,6 C 91 % 1 lf 1012,7 hPa 0,0 l/m 0 min 0 min 0 W/m 12,6 km/h (3 Bft) 97,87 %
06.09.2017 03:42 17,6 C 17,2 C 15,0 C 91 % 1 lf 1012,7 hPa 0,0 l/m 0 min 0 min 0 W/m 14,6 km/h (3 Bft) 97,87 %
06.09.2017 03:44 17,6 C 17,2 C 15,0 C 91 % 1 lf 1012,7 hPa 0,0 l/m 0 min 0 min 0 W/m 6,3 km/h (2 Bft) 95,74 %
06.09.2017 03:46 17,6 C 17,2 C 15,0 C 91 % 1 lf 1012,7 hPa 0,0 l/m 0 min 0 min 0 W/m 10,5 km/h (2 Bft) 95,74 %
06.09.2017 03:48 17,6 C 17,2 C 15,0 C 91 % 1 lf 1012,7 hPa 0,0 l/m 0 min 0 min 0 W/m 10,5 km/h (2 Bft) 95,74 %
06.09.2017 03:50 17,6 C 17,2 C 15,0 C 91 % 1 lf 1012,6 hPa 0,0 l/m 0 min 0 min 0 W/m 8,4 km/h (2 Bft) 97,83 %
06.09.2017 03:52 17,5 C 17,2 C 15,0 C 91 % 1 lf 1012,6 hPa 0,0 l/m 0 min 0 min 0 W/m 14,6 km/h (3 Bft) 95,74 %
06.09.2017 03:54 17,6 C 17,2 C 15,0 C 91 % 1 lf 1012,6 hPa 0,0 l/m 0 min 0 min 0 W/m 8,4 km/h (2 Bft) 95,74 %
06.09.2017 03:56 17,6 C 16,7 C 15,0 C 91 % 1 lf 1012,7 hPa 0,0 l/m 0 min 0 min 0 W/m 8,4 km/h (2 Bft) 89,36 %
06.09.2017 03:58 17,5 C 16,7 C 15,0 C 91 % 1 lf 1012,6 hPa 0,0 l/m 0 min 0 min 0 W/m 8,4 km/h (2 Bft) 95,74 %
06.09.2017 04:00 17,5 C 17,2 C 15,0 C 91 % 1 lf 1012,6 hPa 0,0 l/m 0 min 0 min 0 W/m 10,5 km/h (2 Bft) 95,74 %
06.09.2017 04:05 17,5 C 17,2 C 15,0 C 91 % 1 lf 1012,5 hPa 0,0 l/m 0 min 0 min 0 W/m 10,5 km/h (2 Bft) 93,90 %
06.09.2017 04:06 17,5 C 17,2 C 15,0 C 91 % 1 lf 1012,5 hPa 0,0 l/m 0 min 0 min 0 W/m 2,1 km/h (1 Bft) 91,67 %
06.09.2017 04:08 17,5 C 17,2 C 15,0 C 91 % 1 lf 1012,6 hPa 0,0 l/m 0 min 0 min 0 W/m 6,3 km/h (2 Bft) 95,74 %
06.09.2017 04:10 17,5 C 17,2 C 15,6 C 91 % 1 lf 1012,5 hPa 0,0 l/m 0 min 0 min 0 W/m 8,4 km/h (2 Bft) 95,74 %
06.09.2017 04:12 17,5 C 17,2 C 15,6 C 91 % 1 lf 1012,4 hPa 0,0 l/m 0 min 0 min 0 W/m 12,6 km/h (3 Bft) 95,74 %
06.09.2017 04:14 17,5 C 17,2 C 15,6 C 91 % 1 lf 1012,4 hPa 0,0 l/m 0 min 0 min 0 W/m 8,4 km/h (2 Bft) 93,48 %
06.09.2017 04:16 17,5 C 17,2 C 15,6 C 91 % 1 lf 1012,4 hPa 0,0 l/m 0 min 0 min 0 W/m 10,5 km/h (2 Bft) 91,49 %
06.09.2017 04:18 17,5 C 17,2 C 15,6 C 91 % 1 lf 1012,4 hPa 0,0 l/m 0 min 0 min 0 W/m 6,3 km/h (2 Bft) 95,74 %
06.09.2017 04:20 17,5 C 17,2 C 15,6 C 91 % 1 lf 1012,4 hPa 0,0 l/m 0 min 0 min 0 W/m 8,4 km/h (2 Bft) 97,87 %
06.09.2017 04:22 17,5 C 17,2 C 15,6 C 91 % 1 lf 1012,5 hPa 0,0 l/m 0 min 0 min 0 W/m 14,6 km/h (3 Bft) 97,87 %
06.09.2017 04:24 17,5 C 17,2 C 15,6 C 91 % 1 lf 1012,4 hPa 0,0 l/m 0 min 0 min 0 W/m 10,5 km/h (2 Bft) 97,87 %
06.09.2017 04:26 17,5 C 17,2 C 15,6 C 92 % 1 lf 1012,4 hPa 0,0 l/m 0 min 0 min 0 W/m 10,5 km/h (2 Bft) 97,83 %
06.09.2017 04:28 17,5 C 17,2 C 15,6 C 92 % 1 lf 1012,4 hPa 0,0 l/m 0 min 0 min 0 W/m 6,3 km/h (2 Bft) 91,49 %
06.09.2017 04:30 17,6 C 17,2 C 15,6 C 92 % 1 lf 1012,4 hPa 0,0 l/m 0 min 0 min 0 W/m 6,3 km/h (2 Bft) 97,87 %
06.09.2017 04:32 17,6 C 17,2 C 15,6 C 92 % 1 lf 1012,4 hPa 0,0 l/m 0 min 0 min 0 W/m 14,6 km/h (3 Bft) 97,87 %
06.09.2017 04:34 17,6 C 17,2 C 15,6 C 92 % 1 lf 1012,3 hPa 0,0 l/m 0 min 0 min 0 W/m 8,4 km/h (2 Bft) 95,74 %
06.09.2017 04:36 17,6 C 17,2 C 15,6 C 92 % 1 lf 1012,3 hPa 0,0 l/m 0 min 0 min 0 W/m 12,6 km/h (3 Bft) 93,48 %
06.09.2017 04:38 17,6 C 17,2 C 15,6 C 92 % 1 lf 1012,3 hPa 0,0 l/m 0 min 0 min 0 W/m 12,6 km/h (3 Bft) 95,74 %
06.09.2017 04:40 17,6 C 17,8 C 16,1 C 92 % 1 lf 1012,3 hPa 0,0 l/m 0 min 0 min 0 W/m 10,5 km/h (2 Bft) 93,62 %
06.09.2017 04:42 17,6 C 17,8 C 16,1 C 92 % 1 lf 1012,3 hPa 0,0 l/m 0 min 0 min 0 W/m 14,6 km/h (3 Bft) 95,74 %
06.09.2017 04:44 17,6 C 17,8 C 16,1 C 92 % 1 lf 1012,3 hPa 0,0 l/m 0 min 0 min 0 W/m 10,5 km/h (2 Bft) 93,62 %
06.09.2017 04:46 17,6 C 17,8 C 16,1 C 92 % 1 lf 1012,2 hPa 0,0 l/m 0 min 0 min 0 W/m 12,6 km/h (3 Bft) 95,74 %
06.09.2017 04:48 17,6 C 17,8 C 16,1 C 92 % 1 lf 1012,2 hPa 0,0 l/m 0 min 0 min 0 W/m 14,6 km/h (3 Bft) 95,65 %
06.09.2017 04:50 17,6 C 17,8 C 16,1 C 92 % 1 lf 1012,2 hPa 0,0 l/m 0 min 0 min 0 W/m 10,5 km/h (2 Bft) 95,74 %
06.09.2017 04:52 17,6 C 17,8 C 16,1 C 92 % 1 lf 1012,2 hPa 0,0 l/m 0 min 0 min 0 W/m 10,5 km/h (2 Bft) 95,74 %
06.09.2017 04:54 17,7 C 17,8 C 16,1 C 92 % 1 lf 1012,2 hPa 0,0 l/m 0 min 0 min 0 W/m 16,7 km/h (3 Bft) 95,74 %
06.09.2017 04:56 17,7 C 17,8 C 16,1 C 92 % 1 lf 1012,2 hPa 0,0 l/m 0 min 0 min 0 W/m 14,6 km/h (3 Bft) 97,87 %
06.09.2017 04:58 17,7 C 17,8 C 16,1 C 92 % 1 lf 1012,3 hPa 0,0 l/m 0 min 0 min 0 W/m 12,6 km/h (3 Bft) 93,62 %
06.09.2017 05:00 17,7 C 17,8 C 16,1 C 92 % 1 lf 1012,2 hPa 0,0 l/m 0 min 0 min 0 W/m 8,4 km/h (2 Bft) 97,83 %
06.09.2017 05:02 17,7 C 17,8 C 16,1 C 92 % 1 lf 1012,1 hPa 0,0 l/m 0 min 0 min 0 W/m 12,6 km/h (3 Bft) 95,74 %
06.09.2017 05:04 17,7 C 17,8 C 16,1 C 92 % 1 lf 1012,1 hPa 0,0 l/m 0 min 0 min 0 W/m 12,6 km/h (3 Bft) 97,87 %
06.09.2017 05:06 17,7 C 17,8 C 16,1 C 92 % 1 lf 1012,1 hPa 0,0 l/m 0 min 0 min 0 W/m 16,7 km/h (3 Bft) 97,87 %
06.09.2017 05:08 17,7 C 17,8 C 16,1 C 91 % 1 lf 1012,0 hPa 0,0 l/m 0 min 0 min 0 W/m 12,6 km/h (3 Bft) 100,00 %
06.09.2017 05:10 17,8 C 17,8 C 15,6 C 91 % 1 lf 1012,1 hPa 0,0 l/m 0 min 0 min 0 W/m 8,4 km/h (2 Bft) 97,87 %
06.09.2017 05:12 17,8 C 17,8 C 15,6 C 91 % 1 lf 1012,0 hPa 0,0 l/m 0 min 0 min 0 W/m 12,6 km/h (3 Bft) 100,00 %
06.09.2017 05:14 17,8 C 17,8 C 15,6 C 91 % 1 lf 1012,0 hPa 0,0 l/m 0 min 0 min 0 W/m 14,6 km/h (3 Bft) 97,87 %
06.09.2017 05:16 17,8 C 17,2 C 15,6 C 91 % 1 lf 1012,0 hPa 0,0 l/m 0 min 0 min 0 W/m 12,6 km/h (3 Bft) 100,00 %
06.09.2017 05:18 17,8 C 17,8 C 15,6 C 91 % 1 lf 1012,0 hPa 0,0 l/m 0 min 0 min 0 W/m 14,6 km/h (3 Bft) 97,87 %
06.09.2017 05:20 17,8 C 17,2 C 15,6 C 91 % 1 lf 1012,0 hPa 0,0 l/m 0 min 0 min 0 W/m 10,5 km/h (2 Bft) 100,00 %
06.09.2017 05:22 17,8 C 17,2 C 15,6 C 91 % 1 lf 1012,0 hPa 0,0 l/m 0 min 0 min 0 W/m 10,5 km/h (2 Bft) 100,00 %
06.09.2017 05:24 17,8 C 17,2 C 15,6 C 91 % 1 lf 1012,0 hPa 0,0 l/m 0 min 0 min 0 W/m 14,6 km/h (3 Bft) 100,00 %
06.09.2017 05:26 17,8 C 17,2 C 16,1 C 91 % 3 lf 1012,0 hPa 0,0 l/m 0 min 0 min 0 W/m 14,6 km/h (3 Bft) 100,00 %
06.09.2017 05:28 17,8 C 17,2 C 15,6 C 91 % 15 lf 1012,1 hPa 0,0 l/m 0 min 2 min 0 W/m 20,9 km/h (4 Bft) 100,00 %
06.09.2017 05:30 17,8 C 16,7 C 15,6 C 91 % 15 lf 1012,1 hPa 0,0 l/m 0 min 2 min 0 W/m 23,0 km/h (4 Bft) 100,00 %
06.09.2017 05:32 17,8 C 16,7 C 15,6 C 91 % 15 lf 1012,1 hPa 0,0 l/m 0 min 2 min 0 W/m 25,1 km/h (4 Bft) 97,87 %
06.09.2017 05:34 17,8 C 16,7 C 15,6 C 91 % 15 lf 1012,0 hPa 0,0 l/m 0 min 2 min 0 W/m 16,7 km/h (3 Bft) 97,87 %
06.09.2017 05:36 17,9 C 16,7 C 15,6 C 91 % 15 lf 1012,0 hPa 0,0 l/m 0 min 0 min 0 W/m 10,5 km/h (2 Bft) 95,65 %
06.09.2017 05:38 17,8 C 16,7 C 15,6 C 92 % 15 lf 1012,0 hPa 0,2 l/m 0 min 2 min 0 W/m 16,7 km/h (3 Bft) 93,62 %
06.09.2017 05:40 17,8 C 16,7 C 15,6 C 92 % 15 lf 1012,0 hPa 0,0 l/m 0 min 2 min 0 W/m 18,8 km/h (3 Bft) 95,74 %
06.09.2017 05:42 17,8 C 16,1 C 15,6 C 92 % 15 lf 1012,0 hPa 0,0 l/m 0 min 0 min 0 W/m 20,9 km/h (4 Bft) 97,87 %
06.09.2017 05:44 17,8 C 16,1 C 15,0 C 92 % 15 lf 1011,9 hPa 0,0 l/m 0 min 0 min 0 W/m 14,6 km/h (3 Bft) 97,87 %
06.09.2017 05:45 17,8 C 16,1 C 15,0 C 92 % 15 lf 1011,9 hPa 0,0 l/m 0 min 0 min 0 W/m 20,9 km/h (4 Bft) 98,25 %
06.09.2017 05:48 17,7 C 16,1 C 15,0 C 92 % 15 lf 1011,9 hPa 0,0 l/m 0 min 0 min 0 W/m 16,7 km/h (3 Bft) 96,64 %
06.09.2017 05:50 17,7 C 16,1 C 15,0 C 92 % 15 lf 1011,9 hPa 0,0 l/m 0 min 0 min 0 W/m 18,8 km/h (3 Bft) 91,67 %
06.09.2017 05:52 17,7 C 16,1 C 15,0 C 92 % 15 lf 1012,0 hPa 0,0 l/m 0 min 0 min 0 W/m 23,0 km/h (4 Bft) 93,62 %
06.09.2017 05:54 17,6 C 16,1 C 15,0 C 92 % 15 lf 1011,9 hPa 0,0 l/m 0 min 0 min 0 W/m 18,8 km/h (3 Bft) 97,87 %
06.09.2017 05:56 17,6 C 16,1 C 15,0 C 92 % 15 lf 1011,8 hPa 0,0 l/m 0 min 0 min 0 W/m 16,7 km/h (3 Bft) 97,87 %
06.09.2017 05:58 17,6 C 16,1 C 15,0 C 92 % 15 lf 1011,9 hPa 0,0 l/m 0 min 0 min 0 W/m 18,8 km/h (3 Bft) 95,65 %
06.09.2017 06:00 17,5 C 16,1 C 15,0 C 92 % 15 lf 1011,8 hPa 0,0 l/m 0 min 0 min 0 W/m 16,7 km/h (3 Bft) 98,21 %
06.09.2017 06:02 17,5 C 16,7 C 15,0 C 93 % 15 lf 1011,8 hPa 0,0 l/m 0 min 0 min 0 W/m 29,3 km/h (5 Bft) 97,83 %
06.09.2017 06:04 17,4 C 16,1 C 15,0 C 93 % 15 lf 1011,8 hPa 0,0 l/m 0 min 0 min 0 W/m 18,8 km/h (3 Bft) 97,87 %
06.09.2017 06:06 17,4 C 16,7 C 15,0 C 93 % 15 lf 1011,8 hPa 0,0 l/m 0 min 0 min 0 W/m 27,2 km/h (4 Bft) 95,74 %
06.09.2017 06:10 17,4 C 16,7 C 15,0 C 93 % 15 lf 1011,9 hPa 0,0 l/m 0 min 0 min 0 W/m 29,3 km/h (5 Bft) 96,47 %
06.09.2017 06:13 17,3 C 16,7 C 15,0 C 93 % 15 lf 1011,9 hPa 0,0 l/m 0 min 0 min 0 W/m 25,1 km/h (4 Bft) 97,18 %
06.09.2017 06:14 17,3 C 16,7 C 15,0 C 93 % 15 lf 1011,9 hPa 0,0 l/m 0 min 0 min 0 W/m 29,3 km/h (5 Bft) 91,30 %
06.09.2017 06:16 17,3 C 16,7 C 15,0 C 93 % 15 lf 1011,9 hPa 0,0 l/m 0 min 0 min 0 W/m 16,7 km/h (3 Bft) 95,74 %
06.09.2017 06:18 17,3 C 16,7 C 15,0 C 93 % 15 lf 1011,8 hPa 0,0 l/m 0 min 0 min 0 W/m 20,9 km/h (4 Bft) 97,87 %
06.09.2017 06:20 17,3 C 16,7 C 15,6 C 93 % 14 lf 1011,8 hPa 0,0 l/m 0 min 0 min 0 W/m 27,2 km/h (4 Bft) 95,74 %
06.09.2017 06:26 17,3 C 16,7 C 15,6 C 93 % 13 lf 1011,8 hPa 0,0 l/m 0 min 0 min 0 W/m 27,2 km/h (4 Bft) 96,34 %
06.09.2017 06:28 17,3 C 16,7 C 15,6 C 93 % 13 lf 1011,8 hPa 0,0 l/m 0 min 0 min 0 W/m 20,9 km/h (4 Bft) 100,00 %
06.09.2017 06:30 17,3 C 16,1 C 15,0 C 94 % 15 lf 1011,8 hPa 0,0 l/m 0 min 2 min 0 W/m 20,9 km/h (4 Bft) 100,00 %
06.09.2017 06:32 17,3 C 16,1 C 15,0 C 94 % 15 lf 1011,8 hPa 0,0 l/m 0 min 2 min 0 W/m 23,0 km/h (4 Bft) 93,62 %
06.09.2017 06:34 17,2 C 16,1 C 15,0 C 94 % 15 lf 1011,8 hPa 0,0 l/m 0 min 2 min 0 W/m 14,6 km/h (3 Bft) 93,48 %
06.09.2017 06:36 17,2 C 16,1 C 15,0 C 94 % 15 lf 1011,9 hPa 0,0 l/m 0 min 2 min 0 W/m 18,8 km/h (3 Bft) 97,87 %
06.09.2017 06:38 17,2 C 16,1 C 15,0 C 94 % 15 lf 1011,9 hPa 0,0 l/m 0 min 2 min 0 W/m 16,7 km/h (3 Bft) 100,00 %
06.09.2017 06:40 17,2 C 16,1 C 15,0 C 94 % 15 lf 1011,9 hPa 0,0 l/m 0 min 2 min 0 W/m 25,1 km/h (4 Bft) 95,74 %
06.09.2017 06:42 17,2 C 16,1 C 15,0 C 94 % 15 lf 1011,9 hPa 0,0 l/m 0 min 2 min 0 W/m 16,7 km/h (3 Bft) 93,62 %
06.09.2017 06:44 17,2 C 16,1 C 15,0 C 94 % 15 lf 1011,9 hPa 0,0 l/m 0 min 2 min 0 W/m 20,9 km/h (4 Bft) 95,74 %
06.09.2017 06:46 17,2 C 16,1 C 15,0 C 94 % 15 lf 1011,9 hPa 0,0 l/m 0 min 2 min 0 W/m 27,2 km/h (4 Bft) 95,65 %
06.09.2017 06:48 17,2 C 16,1 C 15,0 C 95 % 15 lf 1011,9 hPa 0,0 l/m 0 min 0 min 0 W/m 14,6 km/h (3 Bft) 93,62 %
06.09.2017 06:50 17,1 C 16,1 C 15,0 C 95 % 15 lf 1011,8 hPa 0,0 l/m 0 min 0 min 0 W/m 10,5 km/h (2 Bft) 95,74 %
06.09.2017 06:52 17,1 C 16,1 C 15,0 C 95 % 15 lf 1011,9 hPa 0,0 l/m 0 min 0 min 0 W/m 20,9 km/h (4 Bft) 93,62 %
06.09.2017 06:54 17,1 C 16,1 C 15,0 C 95 % 15 lf 1012,0 hPa 0,0 l/m 0 min 0 min 0 W/m 14,6 km/h (3 Bft) 95,74 %
06.09.2017 06:56 17,1 C 16,1 C 15,0 C 95 % 15 lf 1011,9 hPa 0,0 l/m 0 min 2 min 0 W/m 18,8 km/h (3 Bft) 95,65 %
06.09.2017 06:58 17,1 C 16,1 C 15,0 C 95 % 15 lf 1012,0 hPa 0,0 l/m 0 min 2 min 0 W/m 14,6 km/h (3 Bft) 97,87 %
06.09.2017 07:00 17,1 C 16,1 C 15,0 C 95 % 15 lf 1011,9 hPa 0,0 l/m 0 min 0 min 0 W/m 25,1 km/h (4 Bft) 93,62 %
06.09.2017 07:02 17,1 C 16,1 C 15,0 C 95 % 15 lf 1011,9 hPa 0,0 l/m 0 min 2 min 0 W/m 18,8 km/h (3 Bft) 95,74 %
06.09.2017 07:04 17,1 C 16,1 C 15,0 C 95 % 15 lf 1011,9 hPa 0,0 l/m 0 min 2 min 0 W/m 20,9 km/h (4 Bft) 93,62 %
06.09.2017 07:06 17,0 C 16,1 C 15,0 C 95 % 15 lf 1012,0 hPa 0,0 l/m 0 min 0 min 0 W/m 20,9 km/h (4 Bft) 97,87 %
06.09.2017 07:08 17,0 C 16,1 C 15,0 C 95 % 15 lf 1011,9 hPa 0,0 l/m 0 min 0 min 0 W/m 25,1 km/h (4 Bft) 97,87 %
06.09.2017 07:10 17,0 C 16,1 C 15,0 C 95 % 15 lf 1012,0 hPa 0,0 l/m 0 min 2 min 4 W/m 20,9 km/h (4 Bft) 97,83 %
06.09.2017 07:12 17,0 C 16,1 C 15,0 C 95 % 15 lf 1012,0 hPa 0,0 l/m 0 min 0 min 6 W/m 16,7 km/h (3 Bft) 95,74 %
06.09.2017 07:14 17,0 C 16,1 C 15,0 C 95 % 15 lf 1012,1 hPa 0,0 l/m 0 min 2 min 8 W/m 16,7 km/h (3 Bft) 97,87 %
06.09.2017 07:16 17,0 C 16,1 C 15,0 C 95 % 15 lf 1012,1 hPa 0,0 l/m 0 min 2 min 10 W/m 20,9 km/h (4 Bft) 97,87 %
06.09.2017 07:18 17,0 C 16,1 C 15,0 C 95 % 15 lf 1012,1 hPa 0,0 l/m 0 min 0 min 11 W/m 23,0 km/h (4 Bft) 97,87 %
06.09.2017 07:20 17,0 C 16,7 C 15,0 C 95 % 14 lf 1012,1 hPa 0,0 l/m 0 min 2 min 12 W/m 18,8 km/h (3 Bft) 100,00 %
06.09.2017 07:22 17,0 C 16,7 C 15,0 C 95 % 13 lf 1012,1 hPa 0,0 l/m 0 min 2 min 12 W/m 18,8 km/h (3 Bft) 95,74 %
06.09.2017 07:24 17,0 C 16,7 C 15,0 C 95 % 12 lf 1012,1 hPa 0,0 l/m 0 min 0 min 12 W/m 18,8 km/h (3 Bft) 100,00 %
06.09.2017 07:26 17,0 C 16,7 C 15,0 C 95 % 11 lf 1012,1 hPa 0,0 l/m 0 min 0 min 17 W/m 14,6 km/h (3 Bft) 100,00 %
06.09.2017 07:28 17,0 C 16,7 C 15,0 C 95 % 9 lf 1012,1 hPa 0,0 l/m 0 min 0 min 21 W/m 18,8 km/h (3 Bft) 100,00 %
06.09.2017 07:30 17,0 C 16,7 C 15,6 C 95 % 6 lf 1012,1 hPa 0,0 l/m 0 min 0 min 25 W/m 14,6 km/h (3 Bft) 100,00 %
06.09.2017 07:32 17,0 C 16,7 C 15,6 C 95 % 4 lf 1012,1 hPa 0,0 l/m 0 min 0 min 24 W/m 20,9 km/h (4 Bft) 97,83 %
06.09.2017 07:34 17,0 C 16,7 C 15,6 C 95 % 3 lf 1012,1 hPa 0,0 l/m 0 min 0 min 25 W/m 23,0 km/h (4 Bft) 100,00 %
06.09.2017 07:36 17,0 C 16,7 C 15,6 C 95 % 2 lf 1012,1 hPa 0,0 l/m 0 min 0 min 28 W/m 23,0 km/h (4 Bft) 97,87 %
06.09.2017 07:38 17,0 C 16,7 C 15,6 C 95 % 1 lf 1012,2 hPa 0,0 l/m 0 min 0 min 25 W/m 16,7 km/h (3 Bft) 95,74 %
06.09.2017 07:40 17,0 C 16,7 C 15,6 C 95 % 1 lf 1012,1 hPa 0,0 l/m 0 min 0 min 24 W/m 14,6 km/h (3 Bft) 97,87 %
06.09.2017 07:42 17,0 C 16,7 C 15,6 C 95 % 1 lf 1012,2 hPa 0,0 l/m 0 min 0 min 27 W/m 18,8 km/h (3 Bft) 91,49 %
06.09.2017 07:44 17,0 C 16,7 C 15,6 C 95 % 1 lf 1012,2 hPa 0,0 l/m 0 min 0 min 24 W/m 18,8 km/h (3 Bft) 97,83 %
06.09.2017 07:46 17,0 C 17,2 C 15,6 C 95 % 1 lf 1012,2 hPa 0,0 l/m 0 min 0 min 31 W/m 20,9 km/h (4 Bft) 97,87 %
06.09.2017 07:48 17,0 C 17,2 C 15,6 C 95 % 1 lf 1012,2 hPa 0,0 l/m 0 min 0 min 26 W/m 18,8 km/h (3 Bft) 100,00 %
06.09.2017 07:50 17,0 C 17,2 C 15,6 C 95 % 2 lf 1012,2 hPa 0,0 l/m 0 min 0 min 23 W/m 23,0 km/h (4 Bft) 97,87 %
06.09.2017 07:52 17,1 C 17,2 C 15,6 C 95 % 1 lf 1012,2 hPa 0,0 l/m 0 min 0 min 21 W/m 18,8 km/h (3 Bft) 97,87 %
06.09.2017 07:54 17,1 C 16,7 C 15,6 C 95 % 4 lf 1012,2 hPa 0,0 l/m 0 min 2 min 31 W/m 14,6 km/h (3 Bft) 97,87 %
06.09.2017 07:56 17,1 C 16,7 C 15,6 C 95 % 15 lf 1012,2 hPa 0,0 l/m 0 min 2 min 33 W/m 20,9 km/h (4 Bft) 95,65 %
06.09.2017 07:58 17,1 C 16,7 C 15,6 C 95 % 15 lf 1012,3 hPa 0,0 l/m 0 min 2 min 29 W/m 16,7 km/h (3 Bft) 97,87 %
06.09.2017 08:00 17,1 C 16,1 C 15,6 C 95 % 15 lf 1012,3 hPa 0,2 l/m 0 min 2 min 29 W/m 18,8 km/h (3 Bft) 93,62 %
06.09.2017 08:02 17,1 C 16,1 C 15,6 C 95 % 15 lf 1012,3 hPa 0,2 l/m 0 min 2 min 19 W/m 25,1 km/h (4 Bft) 97,87 %
06.09.2017 08:04 17,1 C 16,1 C 15,6 C 95 % 15 lf 1012,3 hPa 0,0 l/m 0 min 2 min 16 W/m 27,2 km/h (4 Bft) 97,87 %
06.09.2017 08:06 17,1 C 16,1 C 15,6 C 96 % 15 lf 1012,3 hPa 0,0 l/m 0 min 2 min 13 W/m 20,9 km/h (4 Bft) 97,87 %
06.09.2017 08:08 17,1 C 16,1 C 15,6 C 96 % 15 lf 1012,4 hPa 0,0 l/m 0 min 2 min 14 W/m 20,9 km/h (4 Bft) 97,83 %
06.09.2017 08:10 17,1 C 16,1 C 15,6 C 96 % 15 lf 1012,3 hPa 0,2 l/m 0 min 2 min 18 W/m 23,0 km/h (4 Bft) 95,74 %
06.09.2017 08:12 17,1 C 16,1 C 15,6 C 96 % 15 lf 1012,4 hPa 0,0 l/m 0 min 2 min 17 W/m 16,7 km/h (3 Bft) 97,87 %
06.09.2017 08:14 17,1 C 16,1 C 15,6 C 96 % 15 lf 1012,5 hPa 0,0 l/m 0 min 2 min 28 W/m 20,9 km/h (4 Bft) 97,87 %
06.09.2017 08:16 17,1 C 16,1 C 15,6 C 96 % 15 lf 1012,5 hPa 0,0 l/m 0 min 0 min 43 W/m 16,7 km/h (3 Bft) 97,87 %
06.09.2017 08:18 17,1 C 16,1 C 15,6 C 96 % 15 lf 1012,5 hPa 0,0 l/m 0 min 0 min 54 W/m 29,3 km/h (5 Bft) 97,87 %
06.09.2017 08:20 17,1 C 16,1 C 15,6 C 96 % 15 lf 1012,5 hPa 0,0 l/m 0 min 0 min 66 W/m 25,1 km/h (4 Bft) 97,83 %
06.09.2017 08:22 17,1 C 16,1 C 15,6 C 96 % 15 lf 1012,5 hPa 0,0 l/m 0 min 0 min 71 W/m 16,7 km/h (3 Bft) 93,62 %
06.09.2017 08:24 17,1 C 16,7 C 15,6 C 96 % 15 lf 1012,5 hPa 0,0 l/m 0 min 0 min 80 W/m 20,9 km/h (4 Bft) 97,87 %
06.09.2017 08:26 17,1 C 16,7 C 15,6 C 96 % 15 lf 1012,5 hPa 0,0 l/m 0 min 0 min 68 W/m 23,0 km/h (4 Bft) 95,74 %
06.09.2017 08:28 17,0 C 16,7 C 15,6 C 96 % 15 lf 1012,5 hPa 0,0 l/m 0 min 0 min 66 W/m 29,3 km/h (5 Bft) 93,62 %
06.09.2017 08:30 17,0 C 16,7 C 15,6 C 96 % 15 lf 1012,6 hPa 0,0 l/m 0 min 0 min 79 W/m 37,7 km/h (5 Bft) 91,30 %
06.09.2017 08:32 17,0 C 16,7 C 15,6 C 96 % 15 lf 1012,6 hPa 0,0 l/m 0 min 0 min 96 W/m 25,1 km/h (4 Bft) 89,36 %
06.09.2017 08:34 17,0 C 16,7 C 16,1 C 96 % 15 lf 1012,7 hPa 0,0 l/m 0 min 0 min 88 W/m 23,0 km/h (4 Bft) 91,49 %
06.09.2017 08:36 17,0 C 16,7 C 15,6 C 96 % 15 lf 1012,7 hPa 0,0 l/m 0 min 0 min 59 W/m 27,2 km/h (4 Bft) 95,74 %
06.09.2017 08:38 17,0 C 16,1 C 15,6 C 96 % 15 lf 1012,6 hPa 0,0 l/m 0 min 0 min 57 W/m 29,3 km/h (5 Bft) 93,62 %
06.09.2017 08:40 16,9 C 16,1 C 15,6 C 96 % 15 lf 1012,7 hPa 0,0 l/m 0 min 0 min 72 W/m 25,1 km/h (4 Bft) 93,62 %
06.09.2017 08:42 16,9 C 16,1 C 15,6 C 96 % 15 lf 1012,7 hPa 0,0 l/m 0 min 0 min 79 W/m 16,7 km/h (3 Bft) 93,48 %
06.09.2017 08:44 16,9 C 16,1 C 16,1 C 96 % 15 lf 1012,7 hPa 0,0 l/m 0 min 0 min 85 W/m 25,1 km/h (4 Bft) 95,74 %
06.09.2017 08:46 16,9 C 16,1 C 15,6 C 96 % 15 lf 1012,7 hPa 0,0 l/m 0 min 0 min 86 W/m 27,2 km/h (4 Bft) 93,62 %
06.09.2017 08:48 16,9 C 16,1 C 15,6 C 96 % 15 lf 1012,7 hPa 0,0 l/m 0 min 0 min 77 W/m 35,6 km/h (5 Bft) 95,74 %
06.09.2017 08:50 16,8 C 16,1 C 15,6 C 96 % 15 lf 1012,9 hPa 0,0 l/m 0 min 0 min 69 W/m 25,1 km/h (4 Bft) 93,62 %
06.09.2017 08:52 16,8 C 16,1 C 15,6 C 96 % 15 lf 1012,9 hPa 0,0 l/m 0 min 0 min 68 W/m 29,3 km/h (5 Bft) 91,49 %
06.09.2017 08:54 16,8 C 16,1 C 15,6 C 96 % 15 lf 1012,9 hPa 0,0 l/m 0 min 0 min 84 W/m 25,1 km/h (4 Bft) 95,65 %
06.09.2017 08:56 16,8 C 16,1 C 15,6 C 95 % 15 lf 1013,0 hPa 0,0 l/m 0 min 0 min 86 W/m 25,1 km/h (4 Bft) 93,62 %
06.09.2017 08:58 16,8 C 16,1 C 15,6 C 96 % 15 lf 1013,0 hPa 0,0 l/m 0 min 0 min 84 W/m 27,2 km/h (4 Bft) 95,74 %
06.09.2017 09:00 16,8 C 16,1 C 15,6 C 96 % 15 lf 1013,0 hPa 0,0 l/m 0 min 0 min 99 W/m 35,6 km/h (5 Bft) 95,74 %
06.09.2017 09:02 16,8 C 16,1 C 15,6 C 95 % 15 lf 1013,1 hPa 0,0 l/m 0 min 0 min 92 W/m 43,9 km/h (6 Bft) 91,49 %
06.09.2017 09:04 16,8 C 16,1 C 15,6 C 95 % 15 lf 1013,1 hPa 0,0 l/m 0 min 0 min 96 W/m 23,0 km/h (4 Bft) 93,62 %
06.09.2017 09:06 16,7 C 16,1 C 15,6 C 95 % 15 lf 1013,3 hPa 0,0 l/m 0 min 0 min 102 W/m 29,3 km/h (5 Bft) 95,65 %
06.09.2017 09:08 16,7 C 16,1 C 15,6 C 95 % 15 lf 1013,3 hPa 0,0 l/m 0 min 2 min 80 W/m 33,5 km/h (5 Bft) 95,74 %
06.09.2017 09:10 16,7 C 16,1 C 15,0 C 95 % 15 lf 1013,3 hPa 0,0 l/m 0 min 2 min 59 W/m 29,3 km/h (5 Bft) 95,74 %
06.09.2017 09:12 16,7 C 16,1 C 15,0 C 95 % 15 lf 1013,4 hPa 0,0 l/m 0 min 0 min 72 W/m 31,4 km/h (5 Bft) 95,74 %
06.09.2017 09:14 16,6 C 15,6 C 15,0 C 95 % 15 lf 1013,4 hPa 0,0 l/m 0 min 0 min 89 W/m 27,2 km/h (4 Bft) 100,00 %
06.09.2017 09:16 16,6 C 15,6 C 15,0 C 95 % 15 lf 1013,4 hPa 0,0 l/m 0 min 0 min 101 W/m 29,3 km/h (5 Bft) 95,74 %
06.09.2017 09:18 16,6 C 15,6 C 15,0 C 95 % 15 lf 1013,5 hPa 0,0 l/m 0 min 0 min 120 W/m 43,9 km/h (6 Bft) 95,65 %
06.09.2017 09:20 16,5 C 16,1 C 15,0 C 94 % 15 lf 1013,7 hPa 0,0 l/m 0 min 0 min 130 W/m 29,3 km/h (5 Bft) 95,74 %
06.09.2017 09:22 16,4 C 16,1 C 15,0 C 94 % 15 lf 1013,7 hPa 0,0 l/m 0 min 0 min 134 W/m 29,3 km/h (5 Bft) 97,87 %
06.09.2017 09:24 16,4 C 16,1 C 15,0 C 94 % 14 lf 1013,7 hPa 0,0 l/m 0 min 0 min 129 W/m 31,4 km/h (5 Bft) 95,74 %
06.09.2017 09:26 16,4 C 16,1 C 15,0 C 94 % 12 lf 1013,9 hPa 0,0 l/m 0 min 0 min 122 W/m 27,2 km/h (4 Bft) 95,74 %
06.09.2017 09:28 16,3 C 15,6 C 15,0 C 94 % 7 lf 1013,8 hPa 0,0 l/m 0 min 0 min 128 W/m 43,9 km/h (6 Bft) 95,74 %
06.09.2017 09:30 16,3 C 15,6 C 15,0 C 94 % 3 lf 1013,7 hPa 0,0 l/m 0 min 0 min 121 W/m 48,1 km/h (6 Bft) 95,65 %
06.09.2017 09:32 16,3 C 15,6 C 15,0 C 94 % 1 lf 1013,8 hPa 0,0 l/m 0 min 0 min 124 W/m 31,4 km/h (5 Bft) 97,87 %
06.09.2017 09:34 16,3 C 15,6 C 15,0 C 93 % 1 lf 1013,8 hPa 0,0 l/m 0 min 0 min 131 W/m 39,7 km/h (6 Bft) 97,87 %
06.09.2017 09:36 16,2 C 15,6 C 15,0 C 93 % 1 lf 1013,9 hPa 0,0 l/m 0 min 0 min 135 W/m 35,6 km/h (5 Bft) 97,87 %
06.09.2017 09:38 16,2 C 16,1 C 15,0 C 93 % 1 lf 1013,9 hPa 0,0 l/m 0 min 0 min 144 W/m 29,3 km/h (5 Bft) 97,87 %
06.09.2017 09:40 16,2 C 16,1 C 15,6 C 93 % 1 lf 1013,9 hPa 0,0 l/m 0 min 0 min 147 W/m 25,1 km/h (4 Bft) 97,87 %
06.09.2017 09:42 16,2 C 16,1 C 15,6 C 93 % 1 lf 1013,9 hPa 0,0 l/m 0 min 0 min 155 W/m 33,5 km/h (5 Bft) 95,65 %
06.09.2017 09:44 16,2 C 16,1 C 15,6 C 93 % 1 lf 1014,0 hPa 0,0 l/m 0 min 0 min 162 W/m 37,7 km/h (5 Bft) 95,74 %
06.09.2017 09:46 16,2 C 16,1 C 15,6 C 92 % 1 lf 1014,1 hPa 0,0 l/m 0 min 0 min 174 W/m 37,7 km/h (5 Bft) 97,87 %
06.09.2017 09:48 16,2 C 16,1 C 15,6 C 92 % 1 lf 1014,2 hPa 0,0 l/m 0 min 0 min 189 W/m 16,7 km/h (3 Bft) 97,87 %
06.09.2017 09:50 16,3 C 16,1 C 15,6 C 92 % 1 lf 1014,2 hPa 0,0 l/m 0 min 0 min 192 W/m 25,1 km/h (4 Bft) 97,87 %
06.09.2017 09:52 16,3 C 16,1 C 15,6 C 92 % 1 lf 1014,1 hPa 0,0 l/m 0 min 0 min 176 W/m 27,2 km/h (4 Bft) 97,83 %
06.09.2017 09:54 16,3 C 16,1 C 15,6 C 92 % 0 lf 1014,2 hPa 0,0 l/m 0 min 0 min 166 W/m 33,5 km/h (5 Bft) 95,74 %
06.09.2017 09:56 16,3 C 16,1 C 15,6 C 91 % 0 lf 1014,3 hPa 0,0 l/m 0 min 0 min 166 W/m 35,6 km/h (5 Bft) 97,87 %
06.09.2017 09:58 16,3 C 16,1 C 15,6 C 91 % 1 lf 1014,3 hPa 0,0 l/m 0 min 0 min 154 W/m 29,3 km/h (5 Bft) 95,74 %
06.09.2017 10:00 16,3 C 16,1 C 15,6 C 91 % 0 lf 1014,3 hPa 0,0 l/m 0 min 0 min 149 W/m 29,3 km/h (5 Bft) 95,74 %
06.09.2017 10:02 16,3 C 16,1 C 15,6 C 91 % 0 lf 1014,4 hPa 0,0 l/m 0 min 0 min 178 W/m 37,7 km/h (5 Bft) 97,87 %
06.09.2017 10:04 16,4 C 16,1 C 15,6 C 91 % 0 lf 1014,4 hPa 0,0 l/m 0 min 0 min 191 W/m 18,8 km/h (3 Bft) 95,65 %
06.09.2017 10:06 16,4 C 16,1 C 15,6 C 91 % 0 lf 1014,5 hPa 0,0 l/m 0 min 0 min 176 W/m 35,6 km/h (5 Bft) 97,87 %
06.09.2017 10:08 16,4 C 16,1 C 15,6 C 90 % 0 lf 1014,5 hPa 0,0 l/m 0 min 0 min 181 W/m 27,2 km/h (4 Bft) 97,87 %
06.09.2017 10:10 16,4 C 16,7 C 15,6 C 90 % 0 lf 1014,6 hPa 0,0 l/m 0 min 0 min 206 W/m 25,1 km/h (4 Bft) 100,00 %
06.09.2017 10:12 16,4 C 16,7 C 16,1 C 90 % 0 lf 1014,6 hPa 0,0 l/m 2 min 0 min 250 W/m 33,5 km/h (5 Bft) 97,87 %
06.09.2017 10:14 16,4 C 17,2 C 16,1 C 90 % 0 lf 1014,6 hPa 0,0 l/m 2 min 0 min 304 W/m 31,4 km/h (5 Bft) 97,87 %
06.09.2017 10:16 16,4 C 16,7 C 15,6 C 89 % 0 lf 1014,7 hPa 0,0 l/m 2 min 0 min 263 W/m 29,3 km/h (5 Bft) 93,48 %
06.09.2017 10:18 16,5 C 16,7 C 15,6 C 89 % 0 lf 1014,7 hPa 0,0 l/m 0 min 0 min 239 W/m 39,7 km/h (6 Bft) 100,00 %
06.09.2017 10:20 16,5 C 16,7 C 16,1 C 89 % 0 lf 1014,7 hPa 0,0 l/m 2 min 0 min 256 W/m 33,5 km/h (5 Bft) 95,74 %
06.09.2017 10:22 16,6 C 16,7 C 16,1 C 88 % 0 lf 1014,8 hPa 0,0 l/m 2 min 0 min 291 W/m 35,6 km/h (5 Bft) 97,87 %
06.09.2017 10:24 16,6 C 17,2 C 16,1 C 87 % 0 lf 1014,8 hPa 0,0 l/m 2 min 0 min 316 W/m 33,5 km/h (5 Bft) 100,00 %
06.09.2017 10:26 16,6 C 17,2 C 16,1 C 87 % 0 lf 1014,7 hPa 0,0 l/m 2 min 0 min 313 W/m 41,8 km/h (6 Bft) 97,87 %
06.09.2017 10:28 16,7 C 18,3 C 16,1 C 86 % 0 lf 1014,8 hPa 0,0 l/m 2 min 0 min 287 W/m 23,0 km/h (4 Bft) 93,48 %
06.09.2017 10:30 16,7 C 18,9 C 16,1 C 86 % 0 lf 1014,8 hPa 0,0 l/m 2 min 0 min 299 W/m 29,3 km/h (5 Bft) 97,87 %
06.09.2017 10:32 16,8 C 18,9 C 16,1 C 86 % 0 lf 1014,9 hPa 0,0 l/m 0 min 0 min 246 W/m 39,7 km/h (6 Bft) 97,87 %
06.09.2017 10:34 16,8 C 18,9 C 16,1 C 85 % 0 lf 1014,9 hPa 0,0 l/m 0 min 0 min 217 W/m 31,4 km/h (5 Bft) 97,87 %
06.09.2017 10:36 16,8 C 18,9 C 16,1 C 85 % 0 lf 1015,0 hPa 0,0 l/m 0 min 0 min 198 W/m 20,9 km/h (4 Bft) 97,87 %
06.09.2017 10:38 16,8 C 18,9 C 15,6 C 85 % 0 lf 1015,1 hPa 0,0 l/m 0 min 0 min 221 W/m 39,7 km/h (6 Bft) 97,87 %
06.09.2017 10:40 16,8 C 18,9 C 15,6 C 83 % 0 lf 1015,0 hPa 0,0 l/m 0 min 0 min 256 W/m 37,7 km/h (5 Bft) 97,83 %
06.09.2017 10:42 16,8 C 21,1 C 16,1 C 83 % 0 lf 1015,0 hPa 0,0 l/m 0 min 0 min 236 W/m 16,7 km/h (3 Bft) 97,87 %
06.09.2017 10:44 16,8 C 21,1 C 16,1 C 83 % 0 lf 1015,1 hPa 0,0 l/m 0 min 0 min 250 W/m 27,2 km/h (4 Bft) 100,00 %
06.09.2017 10:46 16,9 C 22,8 C 17,2 C 83 % 0 lf 1015,0 hPa 0,0 l/m 2 min 0 min 400 W/m 35,6 km/h (5 Bft) 95,74 %
06.09.2017 10:48 17,0 C 23,3 C 16,7 C 81 % 0 lf 1015,2 hPa 0,0 l/m 2 min 0 min 614 W/m 39,7 km/h (6 Bft) 97,87 %
06.09.2017 10:50 17,1 C 24,4 C 17,2 C 80 % 0 lf 1015,1 hPa 0,0 l/m 2 min 0 min 610 W/m 31,4 km/h (5 Bft) 97,87 %
06.09.2017 10:52 17,3 C 25,6 C 17,2 C 80 % 0 lf 1015,0 hPa 0,0 l/m 2 min 0 min 632 W/m 18,8 km/h (3 Bft) 95,65 %
06.09.2017 10:54 17,4 C 25,0 C 16,7 C 79 % 0 lf 1015,2 hPa 0,0 l/m 2 min 0 min 633 W/m 37,7 km/h (5 Bft) 95,74 %
06.09.2017 10:56 17,6 C 26,7 C 17,2 C 79 % 0 lf 1015,2 hPa 0,0 l/m 2 min 0 min 655 W/m 35,6 km/h (5 Bft) 97,87 %
06.09.2017 10:58 17,7 C 25,6 C 17,2 C 77 % 0 lf 1015,2 hPa 0,0 l/m 2 min 0 min 664 W/m 43,9 km/h (6 Bft) 97,87 %
06.09.2017 11:00 17,8 C 24,4 C 17,2 C 76 % 0 lf 1015,2 hPa 0,0 l/m 2 min 0 min 656 W/m 27,2 km/h (4 Bft) 97,87 %
06.09.2017 11:02 17,9 C 25,6 C 17,8 C 76 % 0 lf 1015,2 hPa 0,0 l/m 2 min 0 min 656 W/m 20,9 km/h (4 Bft) 95,74 %
06.09.2017 11:04 18,1 C 23,9 C 17,8 C 75 % 0 lf 1015,3 hPa 0,0 l/m 2 min 0 min 656 W/m 46,0 km/h (6 Bft) 97,83 %
06.09.2017 11:06 18,1 C 21,7 C 16,7 C 74 % 0 lf 1015,2 hPa 0,0 l/m 0 min 0 min 177 W/m 39,7 km/h (6 Bft) 97,87 %
06.09.2017 11:08 18,1 C 22,8 C 18,3 C 73 % 0 lf 1015,3 hPa 0,0 l/m 2 min 0 min 334 W/m 31,4 km/h (5 Bft) 97,87 %
06.09.2017 11:10 18,1 C 22,2 C 17,8 C 73 % 0 lf 1015,3 hPa 0,0 l/m 2 min 0 min 707 W/m 25,1 km/h (4 Bft) 97,87 %
06.09.2017 11:12 18,1 C 23,3 C 18,9 C 72 % 0 lf 1015,3 hPa 0,0 l/m 2 min 0 min 707 W/m 35,6 km/h (5 Bft) 95,74 %
06.09.2017 11:14 18,1 C 24,4 C 20,0 C 72 % 0 lf 1015,3 hPa 0,0 l/m 2 min 0 min 707 W/m 41,8 km/h (6 Bft) 97,83 %
06.09.2017 11:16 18,2 C 25,0 C 20,6 C 71 % 0 lf 1015,3 hPa 0,0 l/m 2 min 0 min 662 W/m 39,7 km/h (6 Bft) 95,74 %
06.09.2017 11:18 18,2 C 26,1 C 21,7 C 71 % 0 lf 1015,3 hPa 0,0 l/m 2 min 0 min 667 W/m 27,2 km/h (4 Bft) 95,74 %
06.09.2017 11:20 18,4 C 26,7 C 22,8 C 72 % 0 lf 1015,3 hPa 0,0 l/m 2 min 0 min 675 W/m 27,2 km/h (4 Bft) 91,49 %
06.09.2017 11:22 18,4 C 26,1 C 22,8 C 70 % 0 lf 1015,3 hPa 0,0 l/m 2 min 0 min 706 W/m 39,7 km/h (6 Bft) 95,74 %
06.09.2017 11:24 18,6 C 24,4 C 22,2 C 70 % 0 lf 1015,3 hPa 0,0 l/m 2 min 0 min 455 W/m 33,5 km/h (5 Bft) 95,74 %
06.09.2017 11:26 18,6 C 22,8 C 20,6 C 69 % 0 lf 1015,3 hPa 0,0 l/m 0 min 0 min 243 W/m 37,7 km/h (5 Bft) 95,65 %
06.09.2017 11:28 18,5 C 22,8 C 20,6 C 69 % 0 lf 1015,2 hPa 0,0 l/m 0 min 0 min 198 W/m 27,2 km/h (4 Bft) 93,62 %
06.09.2017 11:30 18,6 C 25,0 C 21,1 C 69 % 0 lf 1015,3 hPa 0,0 l/m 2 min 0 min 697 W/m 29,3 km/h (5 Bft) 95,74 %
06.09.2017 11:32 18,6 C 23,9 C 21,1 C 68 % 0 lf 1015,3 hPa 0,0 l/m 2 min 0 min 698 W/m 29,3 km/h (5 Bft) 95,74 %
06.09.2017 11:34 18,6 C 26,1 C 23,3 C 69 % 0 lf 1015,3 hPa 0,0 l/m 2 min 0 min 722 W/m 23,0 km/h (4 Bft) 93,62 %
06.09.2017 11:36 18,7 C 27,2 C 24,4 C 68 % 0 lf 1015,3 hPa 0,0 l/m 2 min 0 min 777 W/m 27,2 km/h (4 Bft) 93,62 %
06.09.2017 11:38 18,8 C 27,8 C 25,0 C 66 % 0 lf 1015,2 hPa 0,0 l/m 2 min 0 min 768 W/m 33,5 km/h (5 Bft) 95,65 %
06.09.2017 11:40 19,0 C 27,8 C 25,0 C 67 % 0 lf 1015,2 hPa 0,0 l/m 2 min 0 min 758 W/m 33,5 km/h (5 Bft) 95,74 %
06.09.2017 11:42 19,2 C 28,9 C 25,6 C 67 % 0 lf 1015,2 hPa 0,0 l/m 2 min 0 min 783 W/m 20,9 km/h (4 Bft) 95,74 %
06.09.2017 11:44 19,3 C 26,1 C 23,9 C 64 % 0 lf 1015,4 hPa 0,0 l/m 2 min 0 min 635 W/m 43,9 km/h (6 Bft) 93,62 %
06.09.2017 11:46 19,3 C 23,3 C 21,7 C 63 % 0 lf 1015,3 hPa 0,0 l/m 0 min 0 min 235 W/m 37,7 km/h (5 Bft) 93,62 %
06.09.2017 11:48 19,3 C 21,7 C 20,6 C 64 % 0 lf 1015,3 hPa 0,0 l/m 0 min 0 min 194 W/m 20,9 km/h (4 Bft) 95,74 %
06.09.2017 11:50 19,2 C 22,8 C 21,1 C 65 % 0 lf 1015,2 hPa 0,0 l/m 0 min 0 min 188 W/m 20,9 km/h (4 Bft) 95,65 %
06.09.2017 11:52 19,3 C 25,0 C 22,8 C 65 % 0 lf 1015,3 hPa 0,0 l/m 2 min 0 min 486 W/m 31,4 km/h (5 Bft) 93,62 %
06.09.2017 11:54 19,3 C 24,4 C 22,8 C 65 % 0 lf 1015,2 hPa 0,0 l/m 2 min 0 min 664 W/m 20,9 km/h (4 Bft) 93,62 %
06.09.2017 11:56 19,3 C 22,8 C 21,1 C 64 % 0 lf 1015,2 hPa 0,0 l/m 0 min 0 min 258 W/m 29,3 km/h (5 Bft) 91,49 %
06.09.2017 11:58 19,3 C 23,9 C 21,7 C 64 % 0 lf 1015,3 hPa 0,0 l/m 2 min 0 min 332 W/m 39,7 km/h (6 Bft) 97,87 %
06.09.2017 12:00 19,3 C 23,9 C 22,2 C 64 % 0 lf 1015,3 hPa 0,0 l/m 2 min 0 min 741 W/m 29,3 km/h (5 Bft) 97,87 %
06.09.2017 12:02 19,3 C 25,6 C 23,3 C 65 % 0 lf 1015,3 hPa 0,0 l/m 0 min 0 min 322 W/m 29,3 km/h (5 Bft) 100,00 %
06.09.2017 12:04 19,4 C 26,7 C 25,0 C 65 % 0 lf 1015,2 hPa 0,0 l/m 2 min 0 min 619 W/m 29,3 km/h (5 Bft) 97,87 %
06.09.2017 12:06 19,4 C 27,2 C 24,4 C 64 % 0 lf 1015,3 hPa 0,0 l/m 2 min 0 min 832 W/m 25,1 km/h (4 Bft) 97,87 %
06.09.2017 12:10 19,7 C 25,6 C 23,3 C 64 % 0 lf 1015,3 hPa 0,0 l/m 4 min 0 min 799 W/m 41,8 km/h (6 Bft) 97,87 %
06.09.2017 12:12 19,6 C 22,8 C 21,7 C 63 % 0 lf 1015,3 hPa 0,0 l/m 0 min 0 min 307 W/m 43,9 km/h (6 Bft) 97,87 %
06.09.2017 12:14 19,5 C 22,2 C 21,1 C 63 % 0 lf 1015,3 hPa 0,0 l/m 0 min 0 min 312 W/m 37,7 km/h (5 Bft) 100,00 %
06.09.2017 12:16 19,4 C 21,1 C 20,6 C 63 % 0 lf 1015,3 hPa 0,0 l/m 0 min 0 min 277 W/m 35,6 km/h (5 Bft) 95,74 %
06.09.2017 12:18 19,3 C 20,0 C 19,4 C 64 % 0 lf 1015,3 hPa 0,0 l/m 0 min 0 min 205 W/m 33,5 km/h (5 Bft) 100,00 %
06.09.2017 12:20 19,2 C 19,4 C 18,9 C 64 % 0 lf 1015,3 hPa 0,0 l/m 0 min 0 min 135 W/m 25,1 km/h (4 Bft) 100,00 %
06.09.2017 12:23 19,0 C 18,9 C 18,3 C 65 % 0 lf 1015,3 hPa 0,0 l/m 0 min 0 min 117 W/m 29,3 km/h (5 Bft) 98,57 %
06.09.2017 12:24 18,9 C 18,3 C 17,8 C 65 % 0 lf 1015,3 hPa 0,0 l/m 0 min 0 min 113 W/m 23,0 km/h (4 Bft) 100,00 %
06.09.2017 12:26 18,7 C 18,3 C 17,8 C 66 % 0 lf 1015,4 hPa 0,0 l/m 0 min 0 min 113 W/m 39,7 km/h (6 Bft) 91,30 %
06.09.2017 12:28 18,6 C 18,3 C 17,8 C 66 % 0 lf 1015,4 hPa 0,0 l/m 0 min 0 min 131 W/m 27,2 km/h (4 Bft) 95,74 %
06.09.2017 12:30 18,4 C 18,3 C 17,8 C 68 % 0 lf 1015,4 hPa 0,0 l/m 0 min 0 min 171 W/m 33,5 km/h (5 Bft) 97,87 %
06.09.2017 12:32 18,3 C 18,3 C 17,8 C 68 % 0 lf 1015,5 hPa 0,0 l/m 0 min 0 min 195 W/m 29,3 km/h (5 Bft) 97,87 %
06.09.2017 12:34 18,2 C 18,3 C 17,8 C 68 % 0 lf 1015,5 hPa 0,0 l/m 0 min 0 min 172 W/m 25,1 km/h (4 Bft) 95,74 %
06.09.2017 12:36 18,1 C 18,3 C 17,8 C 69 % 0 lf 1015,5 hPa 0,0 l/m 0 min 0 min 142 W/m 33,5 km/h (5 Bft) 97,87 %
06.09.2017 12:38 18,1 C 18,3 C 17,2 C 69 % 0 lf 1015,5 hPa 0,0 l/m 0 min 0 min 115 W/m 23,0 km/h (4 Bft) 95,65 %
06.09.2017 12:40 17,9 C 17,8 C 17,2 C 70 % 0 lf 1015,5 hPa 0,0 l/m 0 min 0 min 103 W/m 20,9 km/h (4 Bft) 97,87 %
06.09.2017 12:42 17,9 C 17,8 C 17,2 C 70 % 0 lf 1015,5 hPa 0,0 l/m 0 min 0 min 122 W/m 20,9 km/h (4 Bft) 93,62 %
06.09.2017 12:45 17,8 C 18,3 C 17,2 C 70 % 0 lf 1015,6 hPa 0,0 l/m 0 min 0 min 157 W/m 27,2 km/h (4 Bft) 77,19 %
06.09.2017 12:50 17,7 C 19,4 C 18,3 C 70 % 0 lf 1015,6 hPa 0,0 l/m 0 min 0 min 330 W/m 31,4 km/h (5 Bft) 95,83 %
06.09.2017 12:52 17,7 C 20,0 C 18,9 C 70 % 0 lf 1015,6 hPa 0,0 l/m 0 min 0 min 300 W/m 25,1 km/h (4 Bft) 95,74 %
06.09.2017 12:54 17,7 C 21,7 C 18,9 C 69 % 0 lf 1015,6 hPa 0,0 l/m 0 min 0 min 301 W/m 37,7 km/h (5 Bft) 95,74 %
06.09.2017 12:56 17,8 C 24,4 C 19,4 C 69 % 0 lf 1015,5 hPa 0,0 l/m 2 min 0 min 513 W/m 27,2 km/h (4 Bft) 93,62 %
06.09.2017 12:58 17,9 C 25,6 C 20,0 C 70 % 0 lf 1015,5 hPa 0,0 l/m 2 min 0 min 726 W/m 27,2 km/h (4 Bft) 95,74 %
06.09.2017 13:00 18,1 C 26,1 C 20,0 C 68 % 0 lf 1015,5 hPa 0,0 l/m 2 min 0 min 711 W/m 35,6 km/h (5 Bft) 95,65 %
06.09.2017 13:02 18,3 C 26,1 C 20,0 C 67 % 0 lf 1015,4 hPa 0,0 l/m 2 min 0 min 720 W/m 31,4 km/h (5 Bft) 95,74 %
06.09.2017 13:04 18,5 C 25,6 C 20,0 C 67 % 0 lf 1015,4 hPa 0,0 l/m 2 min 0 min 721 W/m 29,3 km/h (5 Bft) 95,74 %
06.09.2017 13:06 18,6 C 26,7 C 20,0 C 67 % 0 lf 1015,4 hPa 0,0 l/m 2 min 0 min 729 W/m 31,4 km/h (5 Bft) 95,74 %
06.09.2017 13:08 18,8 C 27,2 C 20,6 C 67 % 0 lf 1015,4 hPa 0,0 l/m 2 min 0 min 762 W/m 25,1 km/h (4 Bft) 95,74 %
06.09.2017 13:10 19,0 C 26,7 C 20,6 C 66 % 0 lf 1015,4 hPa 0,0 l/m 2 min 0 min 773 W/m 16,7 km/h (3 Bft) 95,74 %
06.09.2017 13:12 19,1 C 26,7 C 21,1 C 65 % 0 lf 1015,4 hPa 0,0 l/m 2 min 0 min 773 W/m 23,0 km/h (4 Bft) 93,48 %
06.09.2017 13:14 19,3 C 26,7 C 21,1 C 66 % 0 lf 1015,4 hPa 0,0 l/m 2 min 0 min 773 W/m 29,3 km/h (5 Bft) 95,74 %
06.09.2017 13:16 19,4 C 27,2 C 21,1 C 65 % 0 lf 1015,4 hPa 0,0 l/m 2 min 0 min 769 W/m 29,3 km/h (5 Bft) 93,62 %
06.09.2017 13:18 19,6 C 26,1 C 21,1 C 64 % 0 lf 1015,4 hPa 0,0 l/m 2 min 0 min 756 W/m 29,3 km/h (5 Bft) 97,87 %
06.09.2017 13:20 19,7 C 25,6 C 21,1 C 63 % 0 lf 1015,4 hPa 0,0 l/m 2 min 0 min 474 W/m 29,3 km/h (5 Bft) 100,00 %
06.09.2017 13:22 19,8 C 25,6 C 21,1 C 61 % 0 lf 1015,3 hPa 0,0 l/m 2 min 0 min 436 W/m 46,0 km/h (6 Bft) 100,00 %
06.09.2017 13:24 19,7 C 23,3 C 20,0 C 60 % 0 lf 1015,4 hPa 0,0 l/m 2 min 0 min 378 W/m 43,9 km/h (6 Bft) 100,00 %
06.09.2017 13:26 19,7 C 23,9 C 19,4 C 60 % 0 lf 1015,4 hPa 0,0 l/m 2 min 0 min 452 W/m 29,3 km/h (5 Bft) 97,87 %
06.09.2017 13:28 19,7 C 25,0 C 19,4 C 60 % 0 lf 1015,5 hPa 0,0 l/m 2 min 0 min 651 W/m 37,7 km/h (5 Bft) 100,00 %
06.09.2017 13:30 19,7 C 26,1 C 19,4 C 60 % 0 lf 1015,4 hPa 0,0 l/m 2 min 0 min 795 W/m 27,2 km/h (4 Bft) 100,00 %
06.09.2017 13:32 19,7 C 23,9 C 19,4 C 60 % 0 lf 1015,6 hPa 0,0 l/m 2 min 0 min 734 W/m 33,5 km/h (5 Bft) 100,00 %
06.09.2017 13:34 19,7 C 22,2 C 18,9 C 60 % 0 lf 1015,5 hPa 0,0 l/m 0 min 0 min 154 W/m 35,6 km/h (5 Bft) 100,00 %
06.09.2017 13:36 19,6 C 21,1 C 18,3 C 60 % 0 lf 1015,6 hPa 0,0 l/m 0 min 0 min 153 W/m 31,4 km/h (5 Bft) 100,00 %
06.09.2017 13:38 19,4 C 21,1 C 18,3 C 60 % 0 lf 1015,6 hPa 0,0 l/m 0 min 0 min 171 W/m 25,1 km/h (4 Bft) 97,87 %
06.09.2017 13:40 19,3 C 23,3 C 18,3 C 60 % 0 lf 1015,5 hPa 0,0 l/m 2 min 0 min 567 W/m 31,4 km/h (5 Bft) 100,00 %
06.09.2017 13:42 19,3 C 25,0 C 18,9 C 62 % 0 lf 1015,5 hPa 0,0 l/m 2 min 0 min 733 W/m 31,4 km/h (5 Bft) 100,00 %
06.09.2017 13:44 19,4 C 25,6 C 19,4 C 62 % 0 lf 1015,5 hPa 0,0 l/m 2 min 0 min 731 W/m 35,6 km/h (5 Bft) 100,00 %
06.09.2017 13:46 19,5 C 26,1 C 19,4 C 61 % 0 lf 1015,5 hPa 0,0 l/m 2 min 0 min 726 W/m 29,3 km/h (5 Bft) 100,00 %
06.09.2017 13:48 19,6 C 26,1 C 19,4 C 60 % 0 lf 1015,5 hPa 0,0 l/m 2 min 0 min 726 W/m 33,5 km/h (5 Bft) 97,83 %
06.09.2017 13:50 19,7 C 26,1 C 19,4 C 59 % 0 lf 1015,5 hPa 0,0 l/m 2 min 0 min 727 W/m 39,7 km/h (6 Bft) 97,87 %
06.09.2017 13:52 19,7 C 26,7 C 19,4 C 60 % 0 lf 1015,5 hPa 0,0 l/m 2 min 0 min 734 W/m 29,3 km/h (5 Bft) 97,87 %
06.09.2017 13:54 19,8 C 26,1 C 19,4 C 59 % 0 lf 1015,5 hPa 0,0 l/m 2 min 0 min 744 W/m 29,3 km/h (5 Bft) 93,62 %
06.09.2017 13:56 19,9 C 26,1 C 20,0 C 59 % 0 lf 1015,5 hPa 0,0 l/m 2 min 0 min 804 W/m 31,4 km/h (5 Bft) 97,87 %
06.09.2017 13:58 20,1 C 26,1 C 20,6 C 59 % 0 lf 1015,6 hPa 0,0 l/m 2 min 0 min 797 W/m 29,3 km/h (5 Bft) 97,87 %
06.09.2017 14:00 20,1 C 25,0 C 20,6 C 59 % 0 lf 1015,5 hPa 0,0 l/m 2 min 0 min 732 W/m 27,2 km/h (4 Bft) 95,65 %
06.09.2017 14:02 20,1 C 23,3 C 20,6 C 58 % 0 lf 1015,5 hPa 0,0 l/m 0 min 0 min 322 W/m 35,6 km/h (5 Bft) 97,87 %
06.09.2017 14:04 20,1 C 22,2 C 20,0 C 59 % 0 lf 1015,5 hPa 0,0 l/m 0 min 0 min 248 W/m 31,4 km/h (5 Bft) 97,87 %
06.09.2017 14:06 20,0 C 21,7 C 20,0 C 59 % 0 lf 1015,5 hPa 0,0 l/m 0 min 0 min 215 W/m 27,2 km/h (4 Bft) 95,74 %
06.09.2017 14:08 19,9 C 20,6 C 19,4 C 59 % 0 lf 1015,6 hPa 0,0 l/m 0 min 0 min 176 W/m 29,3 km/h (5 Bft) 95,74 %
06.09.2017 14:10 19,8 C 20,0 C 18,9 C 59 % 0 lf 1015,6 hPa 0,0 l/m 0 min 0 min 145 W/m 33,5 km/h (5 Bft) 95,74 %
06.09.2017 14:12 19,7 C 19,4 C 18,3 C 58 % 0 lf 1015,5 hPa 0,0 l/m 0 min 0 min 118 W/m 33,5 km/h (5 Bft) 95,65 %
06.09.2017 14:14 19,5 C 19,4 C 17,8 C 59 % 0 lf 1015,5 hPa 0,0 l/m 0 min 0 min 103 W/m 35,6 km/h (5 Bft) 93,62 %
06.09.2017 14:16 19,4 C 18,9 C 17,8 C 59 % 0 lf 1015,6 hPa 0,0 l/m 0 min 0 min 100 W/m 35,6 km/h (5 Bft) 93,62 %
06.09.2017 14:18 19,2 C 18,9 C 17,8 C 59 % 0 lf 1015,6 hPa 0,0 l/m 0 min 0 min 93 W/m 33,5 km/h (5 Bft) 91,49 %
06.09.2017 14:20 19,1 C 18,3 C 17,2 C 59 % 0 lf 1015,6 hPa 0,0 l/m 0 min 0 min 95 W/m 18,8 km/h (3 Bft) 95,74 %
06.09.2017 14:22 18,9 C 18,3 C 17,2 C 60 % 0 lf 1015,7 hPa 0,0 l/m 0 min 0 min 101 W/m 33,5 km/h (5 Bft) 95,65 %
06.09.2017 14:24 18,7 C 18,3 C 17,2 C 60 % 0 lf 1015,6 hPa 0,0 l/m 0 min 0 min 111 W/m 35,6 km/h (5 Bft) 95,74 %
06.09.2017 14:26 18,6 C 18,3 C 17,2 C 61 % 0 lf 1015,7 hPa 0,0 l/m 0 min 0 min 116 W/m 35,6 km/h (5 Bft) 95,74 %
06.09.2017 14:28 18,6 C 18,3 C 17,2 C 61 % 0 lf 1015,8 hPa 0,0 l/m 0 min 0 min 111 W/m 29,3 km/h (5 Bft) 95,74 %
06.09.2017 14:30 18,4 C 18,3 C 17,2 C 61 % 0 lf 1015,8 hPa 0,0 l/m 0 min 0 min 109 W/m 20,9 km/h (4 Bft) 95,74 %
06.09.2017 14:32 18,3 C 18,3 C 17,2 C 62 % 0 lf 1015,7 hPa 0,0 l/m 0 min 0 min 120 W/m 25,1 km/h (4 Bft) 95,74 %
06.09.2017 14:34 18,3 C 18,3 C 17,8 C 62 % 0 lf 1015,8 hPa 0,0 l/m 0 min 0 min 149 W/m 18,8 km/h (3 Bft) 89,13 %
06.09.2017 14:36 18,2 C 18,3 C 17,8 C 62 % 0 lf 1015,7 hPa 0,0 l/m 0 min 0 min 210 W/m 33,5 km/h (5 Bft) 97,87 %
06.09.2017 14:38 18,2 C 18,9 C 18,9 C 63 % 0 lf 1015,7 hPa 0,0 l/m 0 min 0 min 285 W/m 16,7 km/h (3 Bft) 97,87 %
06.09.2017 14:40 18,2 C 19,4 C 19,4 C 63 % 0 lf 1015,8 hPa 0,0 l/m 0 min 0 min 331 W/m 37,7 km/h (5 Bft) 97,87 %
06.09.2017 14:42 18,2 C 20,0 C 19,4 C 63 % 0 lf 1015,7 hPa 0,0 l/m 2 min 0 min 354 W/m 27,2 km/h (4 Bft) 97,87 %
06.09.2017 14:44 18,3 C 20,6 C 20,0 C 63 % 0 lf 1015,7 hPa 0,0 l/m 2 min 0 min 424 W/m 31,4 km/h (5 Bft) 95,74 %
06.09.2017 14:46 18,3 C 21,7 C 20,0 C 64 % 0 lf 1015,7 hPa 0,0 l/m 2 min 0 min 446 W/m 25,1 km/h (4 Bft) 97,83 %
06.09.2017 14:48 18,4 C 21,7 C 20,6 C 64 % 0 lf 1015,7 hPa 0,0 l/m 2 min 0 min 368 W/m 31,4 km/h (5 Bft) 95,74 %
06.09.2017 14:50 18,5 C 21,1 C 20,0 C 63 % 0 lf 1015,7 hPa 0,0 l/m 0 min 0 min 306 W/m 31,4 km/h (5 Bft) 93,62 %
06.09.2017 14:52 18,6 C 20,6 C 20,0 C 62 % 0 lf 1015,7 hPa 0,0 l/m 0 min 0 min 265 W/m 27,2 km/h (4 Bft) 95,74 %
06.09.2017 14:54 18,6 C 20,0 C 19,4 C 61 % 0 lf 1015,6 hPa 0,0 l/m 0 min 0 min 227 W/m 25,1 km/h (4 Bft) 95,74 %
06.09.2017 14:56 18,6 C 19,4 C 19,4 C 62 % 0 lf 1015,6 hPa 0,0 l/m 0 min 0 min 205 W/m 23,0 km/h (4 Bft) 95,74 %
06.09.2017 14:58 18,6 C 19,4 C 18,9 C 62 % 0 lf 1015,6 hPa 0,0 l/m 0 min 0 min 196 W/m 23,0 km/h (4 Bft) 97,83 %
06.09.2017 15:00 18,5 C 18,9 C 18,9 C 62 % 0 lf 1015,6 hPa 0,0 l/m 0 min 0 min 193 W/m 20,9 km/h (4 Bft) 97,87 %
06.09.2017 15:02 18,5 C 19,4 C 18,9 C 62 % 0 lf 1015,5 hPa 0,0 l/m 0 min 0 min 191 W/m 16,7 km/h (3 Bft) 97,87 %
06.09.2017 15:04 18,5 C 19,4 C 18,9 C 63 % 0 lf 1015,6 hPa 0,0 l/m 0 min 0 min 170 W/m 18,8 km/h (3 Bft) 97,87 %
06.09.2017 15:06 18,4 C 18,9 C 18,3 C 63 % 0 lf 1015,6 hPa 0,0 l/m 0 min 0 min 146 W/m 20,9 km/h (4 Bft) 97,87 %
06.09.2017 15:08 18,4 C 18,9 C 18,3 C 62 % 0 lf 1015,6 hPa 0,0 l/m 0 min 0 min 142 W/m 23,0 km/h (4 Bft) 93,48 %
06.09.2017 15:10 18,4 C 18,9 C 17,8 C 62 % 0 lf 1015,7 hPa 0,0 l/m 0 min 0 min 153 W/m 31,4 km/h (5 Bft) 95,74 %
06.09.2017 15:12 18,3 C 18,3 C 17,8 C 60 % 0 lf 1015,6 hPa 0,0 l/m 0 min 0 min 159 W/m 31,4 km/h (5 Bft) 97,87 %
06.09.2017 15:14 18,2 C 18,3 C 17,8 C 61 % 0 lf 1015,7 hPa 0,0 l/m 0 min 0 min 166 W/m 18,8 km/h (3 Bft) 97,87 %
06.09.2017 15:16 18,2 C 18,9 C 18,3 C 61 % 0 lf 1015,6 hPa 0,0 l/m 0 min 0 min 194 W/m 18,8 km/h (3 Bft) 100,00 %
06.09.2017 15:18 18,2 C 18,9 C 18,3 C 62 % 0 lf 1015,7 hPa 0,0 l/m 0 min 0 min 244 W/m 18,8 km/h (3 Bft) 97,87 %
06.09.2017 15:20 18,2 C 19,4 C 18,9 C 61 % 0 lf 1015,8 hPa 0,0 l/m 0 min 0 min 293 W/m 35,6 km/h (5 Bft) 97,87 %
06.09.2017 15:22 18,2 C 20,0 C 19,4 C 60 % 0 lf 1015,8 hPa 0,0 l/m 0 min 0 min 301 W/m 31,4 km/h (5 Bft) 95,65 %
06.09.2017 15:24 18,2 C 19,4 C 19,4 C 60 % 0 lf 1015,8 hPa 0,0 l/m 0 min 0 min 283 W/m 31,4 km/h (5 Bft) 97,87 %
06.09.2017 15:26 18,2 C 19,4 C 18,9 C 59 % 0 lf 1015,8 hPa 0,0 l/m 0 min 0 min 255 W/m 25,1 km/h (4 Bft) 97,87 %
06.09.2017 15:28 18,2 C 19,4 C 18,9 C 60 % 0 lf 1015,9 hPa 0,0 l/m 0 min 0 min 255 W/m 35,6 km/h (5 Bft) 97,87 %
06.09.2017 15:30 18,2 C 19,4 C 18,9 C 60 % 0 lf 1015,8 hPa 0,0 l/m 0 min 0 min 249 W/m 25,1 km/h (4 Bft) 95,74 %
06.09.2017 15:32 18,2 C 19,4 C 18,9 C 61 % 0 lf 1015,9 hPa 0,0 l/m 0 min 0 min 242 W/m 25,1 km/h (4 Bft) 97,87 %
06.09.2017 15:34 18,2 C 19,4 C 18,9 C 61 % 0 lf 1015,9 hPa 0,0 l/m 0 min 0 min 232 W/m 23,0 km/h (4 Bft) 97,83 %
06.09.2017 15:36 18,2 C 19,4 C 18,9 C 62 % 0 lf 1015,8 hPa 0,0 l/m 0 min 0 min 223 W/m 33,5 km/h (5 Bft) 100,00 %
06.09.2017 15:38 18,2 C 19,4 C 18,9 C 62 % 0 lf 1015,9 hPa 0,0 l/m 0 min 0 min 204 W/m 35,6 km/h (5 Bft) 100,00 %
06.09.2017 15:40 18,2 C 18,9 C 18,3 C 63 % 0 lf 1016,0 hPa 0,0 l/m 0 min 0 min 185 W/m 29,3 km/h (5 Bft) 95,74 %
06.09.2017 15:42 18,2 C 18,9 C 18,3 C 63 % 0 lf 1015,8 hPa 0,0 l/m 0 min 0 min 168 W/m 25,1 km/h (4 Bft) 97,87 %
06.09.2017 15:44 18,2 C 18,9 C 17,8 C 63 % 0 lf 1015,9 hPa 0,0 l/m 0 min 0 min 162 W/m 31,4 km/h (5 Bft) 97,83 %
06.09.2017 15:46 18,1 C 18,3 C 17,8 C 63 % 0 lf 1015,9 hPa 0,0 l/m 0 min 0 min 159 W/m 33,5 km/h (5 Bft) 97,87 %
06.09.2017 15:48 18,1 C 18,3 C 17,8 C 64 % 0 lf 1015,9 hPa 0,0 l/m 0 min 0 min 160 W/m 29,3 km/h (5 Bft) 95,74 %
06.09.2017 15:50 18,0 C 18,3 C 17,8 C 64 % 0 lf 1015,8 hPa 0,0 l/m 0 min 0 min 159 W/m 37,7 km/h (5 Bft) 95,74 %
06.09.2017 15:52 18,0 C 18,3 C 17,8 C 65 % 0 lf 1015,8 hPa 0,0 l/m 0 min 0 min 159 W/m 33,5 km/h (5 Bft) 97,87 %
06.09.2017 15:54 17,9 C 18,3 C 17,8 C 64 % 0 lf 1015,8 hPa 0,0 l/m 0 min 0 min 169 W/m 29,3 km/h (5 Bft) 97,87 %
06.09.2017 15:56 17,9 C 18,3 C 17,8 C 64 % 0 lf 1015,8 hPa 0,0 l/m 0 min 0 min 180 W/m 23,0 km/h (4 Bft) 97,83 %
06.09.2017 15:58 17,8 C 18,3 C 17,8 C 64 % 0 lf 1015,9 hPa 0,0 l/m 0 min 0 min 172 W/m 29,3 km/h (5 Bft) 95,74 %
06.09.2017 16:00 17,8 C 18,3 C 17,8 C 64 % 0 lf 1015,8 hPa 0,0 l/m 0 min 0 min 177 W/m 23,0 km/h (4 Bft) 93,62 %
06.09.2017 16:02 17,8 C 18,3 C 17,8 C 65 % 0 lf 1015,9 hPa 0,0 l/m 0 min 0 min 203 W/m 31,4 km/h (5 Bft) 97,87 %
06.09.2017 16:04 17,8 C 18,3 C 18,3 C 65 % 0 lf 1015,9 hPa 0,0 l/m 0 min 0 min 254 W/m 33,5 km/h (5 Bft) 97,87 %
06.09.2017 16:06 17,8 C 18,9 C 18,3 C 65 % 0 lf 1015,8 hPa 0,0 l/m 0 min 0 min 272 W/m 31,4 km/h (5 Bft) 97,87 %
06.09.2017 16:08 17,8 C 19,4 C 18,3 C 65 % 0 lf 1015,9 hPa 0,0 l/m 0 min 0 min 264 W/m 35,6 km/h (5 Bft) 97,83 %
06.09.2017 16:10 17,8 C 18,9 C 18,3 C 65 % 0 lf 1015,8 hPa 0,0 l/m 0 min 0 min 224 W/m 27,2 km/h (4 Bft) 97,87 %
06.09.2017 16:12 17,8 C 18,9 C 18,3 C 66 % 0 lf 1015,8 hPa 0,0 l/m 0 min 0 min 207 W/m 20,9 km/h (4 Bft) 95,74 %
06.09.2017 16:14 17,8 C 18,9 C 18,3 C 66 % 0 lf 1015,8 hPa 0,0 l/m 0 min 0 min 197 W/m 31,4 km/h (5 Bft) 97,87 %
06.09.2017 16:16 17,8 C 18,9 C 18,3 C 66 % 0 lf 1015,8 hPa 0,0 l/m 0 min 0 min 185 W/m 18,8 km/h (3 Bft) 95,74 %
06.09.2017 16:18 17,7 C 18,3 C 17,8 C 66 % 0 lf 1015,8 hPa 0,0 l/m 0 min 0 min 173 W/m 31,4 km/h (5 Bft) 95,65 %
06.09.2017 16:20 17,7 C 18,3 C 17,8 C 65 % 0 lf 1015,7 hPa 0,0 l/m 0 min 0 min 162 W/m 25,1 km/h (4 Bft) 95,74 %
06.09.2017 16:22 17,7 C 18,3 C 17,8 C 66 % 0 lf 1015,8 hPa 0,0 l/m 0 min 0 min 156 W/m 35,6 km/h (5 Bft) 97,92 %
06.09.2017 16:24 17,7 C 17,8 C 17,8 C 65 % 0 lf 1015,8 hPa 0,0 l/m 0 min 0 min 153 W/m 33,5 km/h (5 Bft) 97,87 %
06.09.2017 16:26 17,6 C 18,3 C 17,8 C 66 % 0 lf 1015,8 hPa 0,0 l/m 0 min 0 min 158 W/m 29,3 km/h (5 Bft) 95,74 %
06.09.2017 16:28 17,6 C 18,3 C 17,8 C 66 % 0 lf 1015,7 hPa 0,0 l/m 0 min 0 min 168 W/m 23,0 km/h (4 Bft) 91,49 %
06.09.2017 16:30 17,6 C 18,3 C 17,8 C 66 % 0 lf 1015,6 hPa 0,0 l/m 0 min 0 min 177 W/m 29,3 km/h (5 Bft) 95,65 %
06.09.2017 16:32 17,6 C 17,8 C 17,8 C 66 % 0 lf 1015,8 hPa 0,0 l/m 0 min 0 min 176 W/m 31,4 km/h (5 Bft) 95,74 %
06.09.2017 16:34 17,6 C 17,8 C 17,8 C 66 % 0 lf 1015,7 hPa 0,0 l/m 0 min 0 min 174 W/m 25,1 km/h (4 Bft) 95,74 %
06.09.2017 16:36 17,5 C 18,3 C 17,8 C 67 % 0 lf 1015,7 hPa 0,0 l/m 0 min 0 min 169 W/m 35,6 km/h (5 Bft) 93,62 %
06.09.2017 16:38 17,6 C 18,3 C 17,8 C 67 % 0 lf 1015,7 hPa 0,0 l/m 0 min 0 min 168 W/m 29,3 km/h (5 Bft) 95,74 %
06.09.2017 16:40 17,5 C 18,3 C 17,8 C 67 % 0 lf 1015,8 hPa 0,0 l/m 0 min 0 min 169 W/m 25,1 km/h (4 Bft) 93,62 %
06.09.2017 16:42 17,5 C 18,3 C 17,8 C 67 % 0 lf 1015,8 hPa 0,0 l/m 0 min 0 min 171 W/m 18,8 km/h (3 Bft) 95,65 %
06.09.2017 16:44 17,5 C 18,3 C 17,8 C 67 % 0 lf 1015,7 hPa 0,0 l/m 0 min 0 min 171 W/m 35,6 km/h (5 Bft) 97,87 %
06.09.2017 16:46 17,5 C 17,8 C 17,8 C 66 % 0 lf 1015,9 hPa 0,0 l/m 0 min 0 min 177 W/m 27,2 km/h (4 Bft) 97,87 %
06.09.2017 16:48 17,5 C 18,3 C 17,8 C 66 % 0 lf 1015,8 hPa 0,0 l/m 0 min 0 min 182 W/m 20,9 km/h (4 Bft) 97,87 %
06.09.2017 16:50 17,5 C 18,3 C 18,3 C 66 % 0 lf 1015,8 hPa 0,0 l/m 0 min 0 min 185 W/m 18,8 km/h (3 Bft) 97,87 %
06.09.2017 16:52 17,5 C 18,3 C 17,8 C 67 % 0 lf 1015,8 hPa 0,0 l/m 0 min 0 min 205 W/m 25,1 km/h (4 Bft) 93,62 %
06.09.2017 16:54 17,5 C 18,3 C 18,3 C 66 % 0 lf 1015,8 hPa 0,0 l/m 0 min 0 min 228 W/m 25,1 km/h (4 Bft) 95,65 %
06.09.2017 16:56 17,6 C 18,9 C 18,3 C 66 % 0 lf 1015,7 hPa 0,0 l/m 0 min 0 min 219 W/m 20,9 km/h (4 Bft) 97,87 %
06.09.2017 16:58 17,6 C 18,9 C 18,3 C 66 % 0 lf 1015,7 hPa 0,0 l/m 0 min 0 min 204 W/m 18,8 km/h (3 Bft) 95,74 %
06.09.2017 17:00 17,6 C 18,9 C 18,3 C 66 % 0 lf 1015,8 hPa 0,0 l/m 0 min 0 min 212 W/m 27,2 km/h (4 Bft) 93,62 %
06.09.2017 17:02 17,7 C 19,4 C 18,3 C 66 % 0 lf 1015,7 hPa 0,0 l/m 0 min 0 min 218 W/m 18,8 km/h (3 Bft) 93,62 %
06.09.2017 17:04 17,7 C 19,4 C 18,3 C 67 % 0 lf 1015,8 hPa 0,0 l/m 2 min 0 min 273 W/m 16,7 km/h (3 Bft) 95,74 %
06.09.2017 17:06 17,8 C 19,4 C 18,3 C 67 % 0 lf 1015,8 hPa 0,0 l/m 2 min 0 min 258 W/m 25,1 km/h (4 Bft) 93,48 %
06.09.2017 17:08 17,8 C 19,4 C 18,3 C 67 % 0 lf 1015,8 hPa 0,0 l/m 2 min 0 min 250 W/m 27,2 km/h (4 Bft) 95,74 %
06.09.2017 17:10 17,9 C 19,4 C 18,3 C 66 % 0 lf 1015,8 hPa 0,0 l/m 0 min 0 min 218 W/m 25,1 km/h (4 Bft) 95,74 %
06.09.2017 17:12 17,9 C 19,4 C 18,3 C 66 % 0 lf 1015,8 hPa 0,0 l/m 2 min 0 min 413 W/m 27,2 km/h (4 Bft) 97,87 %
06.09.2017 17:14 18,0 C 19,4 C 17,8 C 66 % 0 lf 1015,8 hPa 0,0 l/m 2 min 0 min 296 W/m 20,9 km/h (4 Bft) 95,74 %
06.09.2017 17:16 18,1 C 18,9 C 17,8 C 67 % 0 lf 1015,8 hPa 0,0 l/m 0 min 0 min 132 W/m 14,6 km/h (3 Bft) 97,87 %
06.09.2017 17:18 18,1 C 18,9 C 17,2 C 66 % 0 lf 1015,8 hPa 0,0 l/m 0 min 0 min 151 W/m 31,4 km/h (5 Bft) 97,83 %
06.09.2017 17:20 18,1 C 18,3 C 17,2 C 66 % 0 lf 1015,7 hPa 0,0 l/m 0 min 0 min 173 W/m 23,0 km/h (4 Bft) 93,62 %
06.09.2017 17:22 18,0 C 18,3 C 17,2 C 66 % 0 lf 1015,7 hPa 0,0 l/m 0 min 0 min 181 W/m 25,1 km/h (4 Bft) 95,74 %
06.09.2017 17:24 18,0 C 18,9 C 17,2 C 66 % 0 lf 1015,7 hPa 0,0 l/m 0 min 0 min 178 W/m 25,1 km/h (4 Bft) 91,49 %
06.09.2017 17:26 18,0 C 18,9 C 17,8 C 66 % 0 lf 1015,7 hPa 0,0 l/m 0 min 0 min 166 W/m 18,8 km/h (3 Bft) 93,62 %
06.09.2017 17:28 18,0 C 18,9 C 17,8 C 66 % 0 lf 1015,7 hPa 0,0 l/m 0 min 0 min 134 W/m 20,9 km/h (4 Bft) 95,74 %
06.09.2017 17:30 18,0 C 18,9 C 17,2 C 66 % 0 lf 1015,6 hPa 0,0 l/m 0 min 0 min 121 W/m 29,3 km/h (5 Bft) 95,65 %
06.09.2017 17:32 18,0 C 18,3 C 17,2 C 65 % 0 lf 1015,7 hPa 0,0 l/m 0 min 0 min 111 W/m 29,3 km/h (5 Bft) 93,62 %
06.09.2017 17:34 17,9 C 18,3 C 17,2 C 64 % 0 lf 1015,7 hPa 0,0 l/m 0 min 0 min 102 W/m 31,4 km/h (5 Bft) 95,74 %
06.09.2017 17:36 17,9 C 18,3 C 17,2 C 64 % 0 lf 1015,6 hPa 0,0 l/m 0 min 0 min 94 W/m 29,3 km/h (5 Bft) 97,87 %
06.09.2017 17:38 17,8 C 18,3 C 16,7 C 63 % 0 lf 1015,7 hPa 0,0 l/m 0 min 0 min 86 W/m 27,2 km/h (4 Bft) 97,87 %
06.09.2017 17:40 17,8 C 17,8 C 16,7 C 63 % 0 lf 1015,7 hPa 0,0 l/m 0 min 0 min 77 W/m 29,3 km/h (5 Bft) 97,37 %
06.09.2017 17:42 17,8 C 17,8 C 16,7 C 63 % 0 lf 1015,8 hPa 0,0 l/m 0 min 0 min 69 W/m 33,5 km/h (5 Bft) 97,83 %
06.09.2017 17:44 17,7 C 17,8 C 16,7 C 64 % 0 lf 1015,9 hPa 0,0 l/m 0 min 0 min 58 W/m 18,8 km/h (3 Bft) 97,87 %
06.09.2017 17:46 17,7 C 17,8 C 16,7 C 64 % 0 lf 1015,8 hPa 0,0 l/m 0 min 0 min 44 W/m 18,8 km/h (3 Bft) 97,87 %
06.09.2017 17:48 17,6 C 17,2 C 16,1 C 65 % 0 lf 1015,9 hPa 0,0 l/m 0 min 0 min 30 W/m 20,9 km/h (4 Bft) 97,87 %
06.09.2017 17:50 17,6 C 17,2 C 16,1 C 66 % 2 lf 1015,9 hPa 0,0 l/m 0 min 0 min 25 W/m 23,0 km/h (4 Bft) 97,87 %
06.09.2017 17:52 17,6 C 16,7 C 15,6 C 67 % 2 lf 1015,9 hPa 0,0 l/m 0 min 2 min 26 W/m 14,6 km/h (3 Bft) 97,87 %
06.09.2017 17:54 17,5 C 16,7 C 15,0 C 67 % 2 lf 1016,0 hPa 0,0 l/m 0 min 2 min 24 W/m 14,6 km/h (3 Bft) 97,83 %
06.09.2017 17:56 17,4 C 16,7 C 14,4 C 68 % 1 lf 1016,0 hPa 0,0 l/m 0 min 2 min 23 W/m 23,0 km/h (4 Bft) 95,74 %
06.09.2017 17:58 17,4 C 16,7 C 14,4 C 68 % 0 lf 1016,0 hPa 0,0 l/m 0 min 2 min 23 W/m 12,6 km/h (3 Bft) 93,62 %
06.09.2017 18:00 17,4 C 16,7 C 15,0 C 69 % 0 lf 1016,0 hPa 0,0 l/m 0 min 0 min 24 W/m 14,6 km/h (3 Bft) 95,74 %
06.09.2017 18:02 17,3 C 16,7 C 15,0 C 69 % 0 lf 1015,9 hPa 0,0 l/m 0 min 0 min 26 W/m 18,8 km/h (3 Bft) 95,74 %
06.09.2017 18:04 17,2 C 16,7 C 15,6 C 68 % 0 lf 1016,0 hPa 0,0 l/m 0 min 0 min 31 W/m 29,3 km/h (5 Bft) 95,74 %
06.09.2017 18:06 17,2 C 16,7 C 15,6 C 68 % 0 lf 1016,0 hPa 0,0 l/m 0 min 0 min 37 W/m 31,4 km/h (5 Bft) 97,83 %
06.09.2017 18:10 17,1 C 16,7 C 15,6 C 68 % 0 lf 1016,0 hPa 0,0 l/m 0 min 0 min 46 W/m 23,0 km/h (4 Bft) 96,81 %
06.09.2017 18:12 17,0 C 16,7 C 15,6 C 69 % 0 lf 1016,0 hPa 0,0 l/m 0 min 0 min 53 W/m 20,9 km/h (4 Bft) 95,74 %
06.09.2017 18:14 17,0 C 16,7 C 16,1 C 69 % 0 lf 1016,0 hPa 0,0 l/m 0 min 0 min 58 W/m 18,8 km/h (3 Bft) 97,87 %
06.09.2017 18:16 16,9 C 16,7 C 16,1 C 69 % 0 lf 1016,0 hPa 0,0 l/m 0 min 0 min 62 W/m 20,9 km/h (4 Bft) 93,48 %
06.09.2017 18:18 16,9 C 16,7 C 16,1 C 69 % 0 lf 1016,0 hPa 0,0 l/m 0 min 0 min 76 W/m 14,6 km/h (3 Bft) 100,00 %
06.09.2017 18:20 16,9 C 16,7 C 16,1 C 69 % 0 lf 1016,0 hPa 0,0 l/m 0 min 0 min 94 W/m 16,7 km/h (3 Bft) 100,00 %
06.09.2017 18:22 16,9 C 16,7 C 16,1 C 70 % 0 lf 1016,0 hPa 0,0 l/m 0 min 0 min 119 W/m 16,7 km/h (3 Bft) 95,74 %
06.09.2017 18:24 16,9 C 17,2 C 16,1 C 70 % 0 lf 1016,0 hPa 0,0 l/m 0 min 0 min 118 W/m 16,7 km/h (3 Bft) 97,87 %
06.09.2017 18:26 16,9 C 17,2 C 16,1 C 70 % 0 lf 1016,0 hPa 0,0 l/m 2 min 0 min 152 W/m 16,7 km/h (3 Bft) 100,00 %
06.09.2017 18:28 16,9 C 17,2 C 16,1 C 70 % 0 lf 1016,1 hPa 0,0 l/m 0 min 0 min 100 W/m 20,9 km/h (4 Bft) 100,00 %
06.09.2017 18:30 16,9 C 17,2 C 16,1 C 70 % 0 lf 1015,9 hPa 0,0 l/m 0 min 0 min 82 W/m 18,8 km/h (3 Bft) 100,00 %
06.09.2017 18:32 16,9 C 17,2 C 15,6 C 70 % 0 lf 1015,9 hPa 0,0 l/m 0 min 0 min 73 W/m 14,6 km/h (3 Bft) 100,00 %
06.09.2017 18:34 16,9 C 16,7 C 15,6 C 70 % 0 lf 1015,9 hPa 0,0 l/m 0 min 0 min 72 W/m 18,8 km/h (3 Bft) 97,87 %
06.09.2017 18:36 16,9 C 16,7 C 15,6 C 70 % 0 lf 1016,0 hPa 0,0 l/m 0 min 0 min 70 W/m 20,9 km/h (4 Bft) 97,87 %
06.09.2017 18:38 16,8 C 16,7 C 15,6 C 70 % 0 lf 1015,9 hPa 0,0 l/m 0 min 0 min 68 W/m 20,9 km/h (4 Bft) 100,00 %
06.09.2017 18:40 16,8 C 16,7 C 15,0 C 70 % 0 lf 1016,0 hPa 0,0 l/m 0 min 0 min 63 W/m 20,9 km/h (4 Bft) 100,00 %
06.09.2017 18:42 16,8 C 16,7 C 15,0 C 70 % 0 lf 1016,1 hPa 0,0 l/m 0 min 0 min 57 W/m 23,0 km/h (4 Bft) 100,00 %
06.09.2017 18:44 16,8 C 16,1 C 15,0 C 70 % 0 lf 1016,1 hPa 0,0 l/m 0 min 0 min 54 W/m 27,2 km/h (4 Bft) 100,00 %
06.09.2017 18:46 16,7 C 16,1 C 15,0 C 70 % 0 lf 1016,1 hPa 0,0 l/m 0 min 0 min 51 W/m 18,8 km/h (3 Bft) 95,74 %
06.09.2017 18:48 16,7 C 16,1 C 15,0 C 70 % 0 lf 1016,1 hPa 0,0 l/m 0 min 0 min 49 W/m 25,1 km/h (4 Bft) 95,74 %
06.09.2017 18:50 16,7 C 16,1 C 15,0 C 70 % 0 lf 1016,1 hPa 0,0 l/m 0 min 0 min 49 W/m 23,0 km/h (4 Bft) 91,49 %
06.09.2017 18:52 16,7 C 16,1 C 15,0 C 70 % 0 lf 1016,1 hPa 0,0 l/m 0 min 0 min 46 W/m 16,7 km/h (3 Bft) 97,83 %
06.09.2017 18:54 16,7 C 16,1 C 15,0 C 70 % 0 lf 1016,1 hPa 0,0 l/m 0 min 0 min 45 W/m 14,6 km/h (3 Bft) 97,87 %
06.09.2017 18:56 16,6 C 16,1 C 15,0 C 71 % 0 lf 1016,1 hPa 0,0 l/m 0 min 0 min 40 W/m 16,7 km/h (3 Bft) 97,87 %
06.09.2017 18:58 16,6 C 16,1 C 15,0 C 71 % 0 lf 1016,1 hPa 0,0 l/m 0 min 0 min 37 W/m 16,7 km/h (3 Bft) 95,74 %
06.09.2017 19:00 16,6 C 16,1 C 15,0 C 71 % 0 lf 1016,1 hPa 0,0 l/m 0 min 0 min 34 W/m 12,6 km/h (3 Bft) 95,74 %
06.09.2017 19:02 16,6 C 16,1 C 15,0 C 71 % 0 lf 1016,1 hPa 0,0 l/m 0 min 0 min 33 W/m 20,9 km/h (4 Bft) 97,87 %
06.09.2017 19:04 16,6 C 16,1 C 15,0 C 71 % 0 lf 1016,1 hPa 0,0 l/m 0 min 0 min 32 W/m 18,8 km/h (3 Bft) 95,65 %
06.09.2017 19:06 16,5 C 16,1 C 15,0 C 71 % 0 lf 1016,2 hPa 0,0 l/m 0 min 0 min 33 W/m 20,9 km/h (4 Bft) 91,49 %
06.09.2017 19:08 16,5 C 16,1 C 15,0 C 71 % 0 lf 1016,2 hPa 0,0 l/m 0 min 0 min 35 W/m 16,7 km/h (3 Bft) 95,74 %
06.09.2017 19:10 16,5 C 16,1 C 15,6 C 71 % 0 lf 1016,3 hPa 0,0 l/m 0 min 0 min 37 W/m 18,8 km/h (3 Bft) 93,62 %
06.09.2017 19:12 16,5 C 16,1 C 15,6 C 71 % 0 lf 1016,3 hPa 0,0 l/m 0 min 0 min 38 W/m 18,8 km/h (3 Bft) 93,62 %
06.09.2017 19:14 16,5 C 16,1 C 15,6 C 71 % 0 lf 1016,3 hPa 0,0 l/m 0 min 0 min 39 W/m 23,0 km/h (4 Bft) 91,49 %
06.09.2017 19:16 16,4 C 16,1 C 15,0 C 70 % 0 lf 1016,2 hPa 0,0 l/m 0 min 0 min 38 W/m 31,4 km/h (5 Bft) 89,13 %
06.09.2017 19:18 16,4 C 16,1 C 15,0 C 70 % 0 lf 1016,2 hPa 0,0 l/m 0 min 0 min 37 W/m 20,9 km/h (4 Bft) 91,49 %
06.09.2017 19:20 16,4 C 16,1 C 15,0 C 70 % 0 lf 1016,3 hPa 0,0 l/m 0 min 0 min 35 W/m 23,0 km/h (4 Bft) 91,49 %
06.09.2017 19:22 16,4 C 16,1 C 15,0 C 69 % 0 lf 1016,2 hPa 0,0 l/m 0 min 0 min 33 W/m 18,8 km/h (3 Bft) 91,49 %
06.09.2017 19:24 16,3 C 16,1 C 15,0 C 69 % 0 lf 1016,2 hPa 0,0 l/m 0 min 0 min 33 W/m 23,0 km/h (4 Bft) 89,36 %
06.09.2017 19:26 16,3 C 16,1 C 15,0 C 68 % 0 lf 1016,3 hPa 0,0 l/m 0 min 0 min 35 W/m 27,2 km/h (4 Bft) 93,48 %
06.09.2017 19:28 16,3 C 16,1 C 15,0 C 68 % 0 lf 1016,3 hPa 0,0 l/m 0 min 0 min 37 W/m 20,9 km/h (4 Bft) 93,62 %
06.09.2017 19:30 16,2 C 15,6 C 15,0 C 69 % 0 lf 1016,2 hPa 0,0 l/m 0 min 0 min 37 W/m 10,5 km/h (2 Bft) 93,62 %
06.09.2017 19:32 16,2 C 15,6 C 14,4 C 69 % 0 lf 1016,2 hPa 0,0 l/m 0 min 0 min 36 W/m 20,9 km/h (4 Bft) 91,49 %
06.09.2017 19:34 16,2 C 15,6 C 14,4 C 69 % 0 lf 1016,2 hPa 0,0 l/m 0 min 0 min 35 W/m 20,9 km/h (4 Bft) 91,49 %
06.09.2017 19:36 16,2 C 15,6 C 14,4 C 69 % 0 lf 1016,2 hPa 0,0 l/m 0 min 0 min 32 W/m 20,9 km/h (4 Bft) 93,62 %
06.09.2017 19:38 16,2 C 15,6 C 14,4 C 69 % 0 lf 1016,2 hPa 0,0 l/m 0 min 0 min 29 W/m 18,8 km/h (3 Bft) 93,48 %
06.09.2017 19:40 16,1 C 15,6 C 14,4 C 69 % 0 lf 1016,2 hPa 0,0 l/m 0 min 0 min 26 W/m 18,8 km/h (3 Bft) 93,62 %
06.09.2017 19:42 16,1 C 15,6 C 14,4 C 69 % 0 lf 1016,3 hPa 0,0 l/m 0 min 0 min 23 W/m 14,6 km/h (3 Bft) 97,87 %
06.09.2017 19:44 16,1 C 15,6 C 14,4 C 69 % 0 lf 1016,3 hPa 0,0 l/m 0 min 0 min 20 W/m 20,9 km/h (4 Bft) 97,87 %
06.09.2017 19:46 16,0 C 15,6 C 14,4 C 69 % 0 lf 1016,3 hPa 0,0 l/m 0 min 0 min 19 W/m 23,0 km/h (4 Bft) 95,74 %
06.09.2017 19:48 16,0 C 15,6 C 13,9 C 69 % 0 lf 1016,2 hPa 0,0 l/m 0 min 0 min 17 W/m 16,7 km/h (3 Bft) 97,87 %
06.09.2017 19:50 15,9 C 15,6 C 13,9 C 69 % 0 lf 1016,2 hPa 0,0 l/m 0 min 0 min 16 W/m 20,9 km/h (4 Bft) 95,65 %
06.09.2017 19:52 15,9 C 15,0 C 13,9 C 70 % 0 lf 1016,2 hPa 0,0 l/m 0 min 0 min 14 W/m 18,8 km/h (3 Bft) 97,87 %
06.09.2017 19:54 15,9 C 15,0 C 13,9 C 69 % 0 lf 1016,2 hPa 0,0 l/m 0 min 0 min 12 W/m 23,0 km/h (4 Bft) 97,87 %
06.09.2017 19:56 15,8 C 15,0 C 13,9 C 69 % 0 lf 1016,3 hPa 0,0 l/m 0 min 0 min 11 W/m 20,9 km/h (4 Bft) 97,87 %
06.09.2017 19:58 15,8 C 15,0 C 13,9 C 70 % 0 lf 1016,3 hPa 0,0 l/m 0 min 0 min 10 W/m 16,7 km/h (3 Bft) 97,87 %
06.09.2017 20:00 15,8 C 15,0 C 13,9 C 70 % 0 lf 1016,3 hPa 0,0 l/m 0 min 0 min 9 W/m 20,9 km/h (4 Bft) 100,00 %
06.09.2017 20:02 15,8 C 15,0 C 13,9 C 70 % 0 lf 1016,2 hPa 0,0 l/m 0 min 0 min 8 W/m 16,7 km/h (3 Bft) 97,83 %
06.09.2017 20:04 15,7 C 15,0 C 13,9 C 70 % 0 lf 1016,3 hPa 0,0 l/m 0 min 0 min 7 W/m 10,5 km/h (2 Bft) 100,00 %
06.09.2017 20:06 15,7 C 15,0 C 13,9 C 70 % 0 lf 1016,3 hPa 0,0 l/m 0 min 0 min 5 W/m 23,0 km/h (4 Bft) 100,00 %
06.09.2017 20:08 15,7 C 15,0 C 13,9 C 69 % 0 lf 1016,3 hPa 0,0 l/m 0 min 0 min 5 W/m 16,7 km/h (3 Bft) 97,87 %
06.09.2017 20:10 15,7 C 15,0 C 13,9 C 70 % 0 lf 1016,3 hPa 0,0 l/m 0 min 0 min 5 W/m 14,6 km/h (3 Bft) 97,87 %
06.09.2017 20:12 15,6 C 15,0 C 13,9 C 70 % 0 lf 1016,4 hPa 0,0 l/m 0 min 0 min 5 W/m 14,6 km/h (3 Bft) 100,00 %
06.09.2017 20:14 15,6 C 15,0 C 13,9 C 70 % 0 lf 1016,4 hPa 0,0 l/m 0 min 0 min 5 W/m 16,7 km/h (3 Bft) 93,48 %
06.09.2017 20:16 15,6 C 15,0 C 13,9 C 70 % 0 lf 1016,4 hPa 0,0 l/m 0 min 0 min 5 W/m 23,0 km/h (4 Bft) 100,00 %
06.09.2017 20:18 15,6 C 15,0 C 13,9 C 70 % 0 lf 1016,5 hPa 0,0 l/m 0 min 0 min 5 W/m 23,0 km/h (4 Bft) 100,00 %
06.09.2017 20:20 15,6 C 15,0 C 13,9 C 70 % 0 lf 1016,5 hPa 0,0 l/m 0 min 0 min 5 W/m 16,7 km/h (3 Bft) 97,87 %
06.09.2017 20:22 15,5 C 15,0 C 13,9 C 70 % 0 lf 1016,5 hPa 0,0 l/m 0 min 0 min 5 W/m 12,6 km/h (3 Bft) 100,00 %
06.09.2017 20:24 15,5 C 15,0 C 13,9 C 70 % 0 lf 1016,5 hPa 0,0 l/m 0 min 0 min 5 W/m 16,7 km/h (3 Bft) 100,00 %
06.09.2017 20:26 15,5 C 15,0 C 13,9 C 70 % 0 lf 1016,6 hPa 0,0 l/m 0 min 0 min 5 W/m 18,8 km/h (3 Bft) 95,65 %
06.09.2017 20:28 15,5 C 15,0 C 13,9 C 70 % 0 lf 1016,6 hPa 0,0 l/m 0 min 0 min 2 W/m 18,8 km/h (3 Bft) 100,00 %
06.09.2017 20:30 15,4 C 15,0 C 13,9 C 70 % 0 lf 1016,6 hPa 0,0 l/m 0 min 0 min 0 W/m 12,6 km/h (3 Bft) 97,87 %
06.09.2017 20:32 15,4 C 15,0 C 13,9 C 70 % 0 lf 1016,6 hPa 0,0 l/m 0 min 0 min 0 W/m 12,6 km/h (3 Bft) 97,87 %
06.09.2017 20:34 15,4 C 15,0 C 13,9 C 70 % 0 lf 1016,6 hPa 0,0 l/m 0 min 0 min 0 W/m 18,8 km/h (3 Bft) 100,00 %
06.09.2017 20:36 15,4 C 15,0 C 13,9 C 70 % 0 lf 1016,7 hPa 0,0 l/m 0 min 0 min 0 W/m 12,6 km/h (3 Bft) 100,00 %
06.09.2017 20:38 15,4 C 15,0 C 13,9 C 70 % 0 lf 1016,7 hPa 0,0 l/m 0 min 0 min 4 W/m 18,8 km/h (3 Bft) 100,00 %
06.09.2017 20:40 15,4 C 15,0 C 13,9 C 71 % 0 lf 1016,7 hPa 0,0 l/m 0 min 0 min 5 W/m 16,7 km/h (3 Bft) 100,00 %
06.09.2017 20:42 15,4 C 15,0 C 13,9 C 71 % 0 lf 1016,8 hPa 0,0 l/m 0 min 0 min 5 W/m 12,6 km/h (3 Bft) 100,00 %
06.09.2017 20:44 15,4 C 15,0 C 13,9 C 71 % 0 lf 1016,8 hPa 0,0 l/m 0 min 0 min 5 W/m 14,6 km/h (3 Bft) 100,00 %
06.09.2017 20:46 15,4 C 15,0 C 13,9 C 71 % 0 lf 1016,8 hPa 0,0 l/m 0 min 0 min 5 W/m 16,7 km/h (3 Bft) 95,74 %
06.09.2017 20:48 15,4 C 15,0 C 13,9 C 71 % 0 lf 1016,8 hPa 0,0 l/m 0 min 0 min 4 W/m 14,6 km/h (3 Bft) 95,65 %
06.09.2017 20:50 15,3 C 15,0 C 13,9 C 71 % 0 lf 1016,8 hPa 0,0 l/m 0 min 0 min 0 W/m 18,8 km/h (3 Bft) 100,00 %
06.09.2017 20:52 15,3 C 15,0 C 13,9 C 72 % 0 lf 1016,8 hPa 0,0 l/m 0 min 0 min 0 W/m 16,7 km/h (3 Bft) 98,15 %
06.09.2017 20:54 15,3 C 15,0 C 13,9 C 72 % 0 lf 1016,8 hPa 0,0 l/m 0 min 0 min 0 W/m 16,7 km/h (3 Bft) 97,87 %
06.09.2017 20:56 15,3 C 15,0 C 13,9 C 72 % 0 lf 1016,9 hPa 0,0 l/m 0 min 0 min 0 W/m 12,6 km/h (3 Bft) 95,74 %
06.09.2017 20:58 15,3 C 15,0 C 13,9 C 72 % 0 lf 1016,9 hPa 0,0 l/m 0 min 0 min 0 W/m 8,4 km/h (2 Bft) 97,87 %
06.09.2017 21:00 15,3 C 15,0 C 13,9 C 72 % 0 lf 1016,9 hPa 0,0 l/m 0 min 0 min 0 W/m 12,6 km/h (3 Bft) 91,49 %
06.09.2017 21:02 15,3 C 15,0 C 13,9 C 72 % 0 lf 1016,9 hPa 0,0 l/m 0 min 0 min 0 W/m 12,6 km/h (3 Bft) 95,65 %
06.09.2017 21:04 15,3 C 15,0 C 13,9 C 72 % 0 lf 1016,9 hPa 0,0 l/m 0 min 0 min 0 W/m 10,5 km/h (2 Bft) 95,74 %
06.09.2017 21:06 15,3 C 15,0 C 13,9 C 72 % 0 lf 1017,0 hPa 0,0 l/m 0 min 0 min 0 W/m 14,6 km/h (3 Bft) 95,74 %
06.09.2017 21:08 15,3 C 15,0 C 13,9 C 72 % 0 lf 1016,9 hPa 0,0 l/m 0 min 0 min 0 W/m 10,5 km/h (2 Bft) 95,74 %
06.09.2017 21:10 15,3 C 15,0 C 13,9 C 72 % 0 lf 1016,9 hPa 0,0 l/m 0 min 0 min 0 W/m 14,6 km/h (3 Bft) 95,74 %
06.09.2017 21:12 15,2 C 15,0 C 13,9 C 72 % 0 lf 1016,9 hPa 0,0 l/m 0 min 0 min 0 W/m 12,6 km/h (3 Bft) 95,65 %
06.09.2017 21:14 15,2 C 14,4 C 13,9 C 73 % 0 lf 1016,9 hPa 0,0 l/m 0 min 0 min 0 W/m 10,5 km/h (2 Bft) 95,74 %
06.09.2017 21:16 15,2 C 14,4 C 13,3 C 73 % 0 lf 1017,0 hPa 0,0 l/m 0 min 0 min 0 W/m 10,5 km/h (2 Bft) 95,74 %
06.09.2017 21:18 15,2 C 14,4 C 13,3 C 73 % 0 lf 1017,0 hPa 0,0 l/m 0 min 0 min 0 W/m 12,6 km/h (3 Bft) 95,74 %
06.09.2017 21:20 15,2 C 14,4 C 13,3 C 73 % 0 lf 1017,0 hPa 0,0 l/m 0 min 0 min 0 W/m 12,6 km/h (3 Bft) 95,74 %
06.09.2017 21:22 15,2 C 14,4 C 13,3 C 73 % 0 lf 1017,1 hPa 0,0 l/m 0 min 0 min 0 W/m 12,6 km/h (3 Bft) 96,00 %
06.09.2017 21:24 15,2 C 14,4 C 13,9 C 73 % 0 lf 1017,0 hPa 0,0 l/m 0 min 0 min 0 W/m 16,7 km/h (3 Bft) 95,65 %
06.09.2017 21:26 15,2 C 14,4 C 13,9 C 73 % 0 lf 1017,0 hPa 0,0 l/m 0 min 0 min 0 W/m 10,5 km/h (2 Bft) 95,74 %
06.09.2017 21:28 15,2 C 14,4 C 13,9 C 73 % 0 lf 1017,1 hPa 0,0 l/m 0 min 0 min 0 W/m 10,5 km/h (2 Bft) 91,49 %
06.09.2017 21:30 15,2 C 14,4 C 13,3 C 74 % 0 lf 1017,0 hPa 0,0 l/m 0 min 0 min 0 W/m 16,7 km/h (3 Bft) 93,62 %
06.09.2017 21:32 15,2 C 14,4 C 13,9 C 74 % 0 lf 1017,2 hPa 0,0 l/m 0 min 0 min 0 W/m 16,7 km/h (3 Bft) 95,74 %
06.09.2017 21:34 15,1 C 14,4 C 13,9 C 73 % 0 lf 1017,1 hPa 0,0 l/m 0 min 0 min 0 W/m 12,6 km/h (3 Bft) 97,83 %
06.09.2017 21:36 15,1 C 14,4 C 13,9 C 74 % 0 lf 1017,2 hPa 0,0 l/m 0 min 0 min 0 W/m 14,6 km/h (3 Bft) 97,87 %
06.09.2017 21:38 15,1 C 14,4 C 13,9 C 74 % 0 lf 1017,2 hPa 0,0 l/m 0 min 0 min 0 W/m 14,6 km/h (3 Bft) 97,87 %
06.09.2017 21:40 15,1 C 14,4 C 13,9 C 74 % 0 lf 1017,2 hPa 0,0 l/m 0 min 0 min 0 W/m 14,6 km/h (3 Bft) 91,49 %
06.09.2017 21:42 15,1 C 14,4 C 13,9 C 74 % 0 lf 1017,2 hPa 0,0 l/m 0 min 0 min 0 W/m 16,7 km/h (3 Bft) 95,74 %
06.09.2017 21:44 15,1 C 15,0 C 13,9 C 74 % 0 lf 1017,3 hPa 0,0 l/m 0 min 0 min 0 W/m 12,6 km/h (3 Bft) 95,74 %
06.09.2017 21:46 15,1 C 15,0 C 13,9 C 74 % 0 lf 1017,3 hPa 0,0 l/m 0 min 0 min 0 W/m 14,6 km/h (3 Bft) 95,65 %
06.09.2017 21:48 15,1 C 15,0 C 13,9 C 74 % 3 lf 1017,4 hPa 0,0 l/m 0 min 0 min 0 W/m 20,9 km/h (4 Bft) 95,74 %
06.09.2017 21:50 15,1 C 15,0 C 13,9 C 74 % 0 lf 1017,4 hPa 0,0 l/m 0 min 0 min 0 W/m 16,7 km/h (3 Bft) 95,74 %
06.09.2017 21:52 15,1 C 14,4 C 13,3 C 74 % 0 lf 1017,4 hPa 0,0 l/m 0 min 0 min 0 W/m 18,8 km/h (3 Bft) 95,74 %
06.09.2017 21:54 15,1 C 14,4 C 13,3 C 75 % 4 lf 1017,4 hPa 0,0 l/m 0 min 0 min 0 W/m 27,2 km/h (4 Bft) 95,74 %
06.09.2017 21:56 15,1 C 14,4 C 12,8 C 75 % 14 lf 1017,4 hPa 0,0 l/m 0 min 2 min 0 W/m 25,1 km/h (4 Bft) 93,62 %
06.09.2017 21:58 15,1 C 14,4 C 12,2 C 76 % 9 lf 1017,4 hPa 0,0 l/m 0 min 2 min 0 W/m 16,7 km/h (3 Bft) 93,48 %
06.09.2017 22:00 15,1 C 13,9 C 12,2 C 76 % 4 lf 1017,4 hPa 0,0 l/m 0 min 2 min 0 W/m 16,7 km/h (3 Bft) 93,62 %
06.09.2017 22:02 15,1 C 13,9 C 12,2 C 77 % 1 lf 1017,3 hPa 0,0 l/m 0 min 2 min 0 W/m 14,6 km/h (3 Bft) 95,74 %
06.09.2017 22:04 15,0 C 13,9 C 12,2 C 77 % 1 lf 1017,4 hPa 0,0 l/m 0 min 0 min 0 W/m 16,7 km/h (3 Bft) 93,62 %
06.09.2017 22:06 14,9 C 13,9 C 12,2 C 77 % 0 lf 1017,3 hPa 0,0 l/m 0 min 0 min 0 W/m 10,5 km/h (2 Bft) 95,74 %
06.09.2017 22:08 14,9 C 13,9 C 12,2 C 78 % 0 lf 1017,3 hPa 0,0 l/m 0 min 0 min 0 W/m 8,4 km/h (2 Bft) 93,62 %
06.09.2017 22:10 14,9 C 13,9 C 12,2 C 78 % 0 lf 1017,2 hPa 0,0 l/m 0 min 0 min 0 W/m 8,4 km/h (2 Bft) 95,65 %
06.09.2017 22:12 14,9 C 13,9 C 12,2 C 78 % 0 lf 1017,3 hPa 0,0 l/m 0 min 0 min 0 W/m 8,4 km/h (2 Bft) 93,62 %
06.09.2017 22:14 14,9 C 13,9 C 12,2 C 78 % 0 lf 1017,2 hPa 0,0 l/m 0 min 0 min 0 W/m 6,3 km/h (2 Bft) 95,74 %
06.09.2017 22:16 14,8 C 13,9 C 12,8 C 79 % 0 lf 1017,1 hPa 0,0 l/m 0 min 0 min 0 W/m 8,4 km/h (2 Bft) 91,49 %
06.09.2017 22:18 14,8 C 13,9 C 12,8 C 79 % 0 lf 1017,2 hPa 0,0 l/m 0 min 0 min 0 W/m 14,6 km/h (3 Bft) 95,74 %
06.09.2017 22:20 14,8 C 13,9 C 12,8 C 79 % 0 lf 1017,1 hPa 0,0 l/m 0 min 0 min 0 W/m 10,5 km/h (2 Bft) 93,62 %
06.09.2017 22:22 14,7 C 13,9 C 12,8 C 79 % 0 lf 1017,1 hPa 0,0 l/m 0 min 0 min 0 W/m 12,6 km/h (3 Bft) 93,48 %
06.09.2017 22:24 14,7 C 13,9 C 12,8 C 79 % 0 lf 1017,1 hPa 0,0 l/m 0 min 0 min 0 W/m 14,6 km/h (3 Bft) 95,74 %
06.09.2017 22:26 14,7 C 13,9 C 12,8 C 80 % 0 lf 1017,0 hPa 0,0 l/m 0 min 0 min 0 W/m 10,5 km/h (2 Bft) 95,74 %
06.09.2017 22:28 14,6 C 13,9 C 12,8 C 80 % 0 lf 1017,0 hPa 0,0 l/m 0 min 0 min 0 W/m 6,3 km/h (2 Bft) 95,74 %
06.09.2017 22:30 14,6 C 13,9 C 12,8 C 80 % 0 lf 1017,1 hPa 0,0 l/m 0 min 0 min 0 W/m 6,3 km/h (2 Bft) 89,36 %
06.09.2017 22:32 14,6 C 13,3 C 12,2 C 80 % 0 lf 1017,0 hPa 0,0 l/m 0 min 0 min 0 W/m 4,2 km/h (1 Bft) 95,74 %
06.09.2017 22:34 14,6 C 13,3 C 12,2 C 80 % 0 lf 1016,9 hPa 0,0 l/m 0 min 0 min 0 W/m 8,4 km/h (2 Bft) 97,83 %
06.09.2017 22:36 14,5 C 13,3 C 12,2 C 80 % 0 lf 1017,0 hPa 0,0 l/m 0 min 0 min 0 W/m 6,3 km/h (2 Bft) 97,87 %
06.09.2017 22:38 14,5 C 13,3 C 12,2 C 80 % 0 lf 1016,9 hPa 0,0 l/m 0 min 0 min 0 W/m 6,3 km/h (2 Bft) 95,74 %
06.09.2017 22:40 14,4 C 13,3 C 12,2 C 80 % 0 lf 1016,9 hPa 0,0 l/m 0 min 0 min 0 W/m 8,4 km/h (2 Bft) 93,62 %
06.09.2017 22:42 14,4 C 13,3 C 12,2 C 81 % 0 lf 1017,0 hPa 0,0 l/m 0 min 0 min 0 W/m 6,3 km/h (2 Bft) 97,87 %
06.09.2017 22:44 14,4 C 13,3 C 12,2 C 81 % 0 lf 1017,0 hPa 0,0 l/m 0 min 0 min 0 W/m 10,5 km/h (2 Bft) 97,83 %
06.09.2017 22:46 14,3 C 13,3 C 12,2 C 81 % 0 lf 1017,0 hPa 0,0 l/m 0 min 0 min 0 W/m 10,5 km/h (2 Bft) 100,00 %
06.09.2017 22:48 14,2 C 13,3 C 12,2 C 81 % 0 lf 1017,0 hPa 0,0 l/m 0 min 0 min 0 W/m 8,4 km/h (2 Bft) 93,62 %
06.09.2017 22:50 14,2 C 13,3 C 12,2 C 81 % 0 lf 1017,0 hPa 0,0 l/m 0 min 0 min 0 W/m 12,6 km/h (3 Bft) 100,00 %
06.09.2017 22:52 14,2 C 13,3 C 12,2 C 82 % 0 lf 1017,0 hPa 0,0 l/m 0 min 0 min 0 W/m 10,5 km/h (2 Bft) 94,59 %
06.09.2017 22:54 14,2 C 13,3 C 12,8 C 82 % 0 lf 1017,0 hPa 0,0 l/m 0 min 0 min 0 W/m 8,4 km/h (2 Bft) 97,87 %
06.09.2017 22:56 14,2 C 13,3 C 12,8 C 82 % 0 lf 1016,9 hPa 0,0 l/m 0 min 0 min 0 W/m 12,6 km/h (3 Bft) 100,00 %
06.09.2017 22:58 14,2 C 13,3 C 12,8 C 82 % 0 lf 1016,9 hPa 0,0 l/m 0 min 0 min 0 W/m 8,4 km/h (2 Bft) 97,83 %
06.09.2017 23:00 14,2 C 13,3 C 12,8 C 82 % 0 lf 1016,9 hPa 0,0 l/m 0 min 0 min 0 W/m 10,5 km/h (2 Bft) 97,87 %
06.09.2017 23:02 14,1 C 13,3 C 12,8 C 82 % 0 lf 1016,9 hPa 0,0 l/m 0 min 0 min 0 W/m 14,6 km/h (3 Bft) 95,74 %
06.09.2017 23:04 14,1 C 13,3 C 12,8 C 82 % 0 lf 1016,9 hPa 0,0 l/m 0 min 0 min 0 W/m 8,4 km/h (2 Bft) 93,62 %
06.09.2017 23:06 14,1 C 13,3 C 12,8 C 82 % 0 lf 1016,9 hPa 0,0 l/m 0 min 0 min 0 W/m 10,5 km/h (2 Bft) 95,74 %
06.09.2017 23:08 14,0 C 13,3 C 12,8 C 82 % 0 lf 1016,9 hPa 0,0 l/m 0 min 0 min 0 W/m 12,6 km/h (3 Bft) 97,87 %
06.09.2017 23:10 14,0 C 13,3 C 12,8 C 82 % 0 lf 1016,9 hPa 0,0 l/m 0 min 0 min 0 W/m 10,5 km/h (2 Bft) 95,65 %
06.09.2017 23:12 13,9 C 13,3 C 12,8 C 82 % 0 lf 1016,8 hPa 0,0 l/m 0 min 0 min 0 W/m 12,6 km/h (3 Bft) 97,87 %
06.09.2017 23:14 13,9 C 13,3 C 12,8 C 83 % 0 lf 1016,9 hPa 0,0 l/m 0 min 0 min 0 W/m 10,5 km/h (2 Bft) 97,87 %
06.09.2017 23:16 13,9 C 13,3 C 12,8 C 83 % 0 lf 1016,8 hPa 0,0 l/m 0 min 0 min 0 W/m 10,5 km/h (2 Bft) 95,74 %
06.09.2017 23:18 13,9 C 13,3 C 12,8 C 83 % 0 lf 1016,8 hPa 0,0 l/m 0 min 0 min 0 W/m 10,5 km/h (2 Bft) 97,87 %
06.09.2017 23:20 13,9 C 13,3 C 12,8 C 83 % 0 lf 1016,8 hPa 0,0 l/m 0 min 0 min 0 W/m 6,3 km/h (2 Bft) 95,74 %
06.09.2017 23:22 13,9 C 13,3 C 12,2 C 83 % 0 lf 1016,8 hPa 0,0 l/m 0 min 0 min 0 W/m 8,4 km/h (2 Bft) 93,48 %
06.09.2017 23:24 13,8 C 13,3 C 12,2 C 83 % 0 lf 1016,8 hPa 0,0 l/m 0 min 0 min 0 W/m 10,5 km/h (2 Bft) 97,87 %
06.09.2017 23:26 13,8 C 13,3 C 12,2 C 83 % 0 lf 1016,8 hPa 0,0 l/m 0 min 0 min 0 W/m 8,4 km/h (2 Bft) 97,87 %
06.09.2017 23:28 13,8 C 13,3 C 12,2 C 83 % 0 lf 1016,8 hPa 0,0 l/m 0 min 0 min 0 W/m 10,5 km/h (2 Bft) 97,87 %
06.09.2017 23:30 13,8 C 13,3 C 12,2 C 83 % 0 lf 1016,8 hPa 0,0 l/m 0 min 0 min 0 W/m 10,5 km/h (2 Bft) 100,00 %
06.09.2017 23:32 13,8 C 13,3 C 12,2 C 83 % 0 lf 1016,7 hPa 0,0 l/m 0 min 0 min 0 W/m 12,6 km/h (3 Bft) 100,00 %
06.09.2017 23:34 13,8 C 13,3 C 12,2 C 83 % 0 lf 1016,8 hPa 0,0 l/m 0 min 0 min 0 W/m 10,5 km/h (2 Bft) 100,00 %
06.09.2017 23:36 13,8 C 13,3 C 12,2 C 83 % 0 lf 1016,8 hPa 0,0 l/m 0 min 0 min 0 W/m 8,4 km/h (2 Bft) 100,00 %
06.09.2017 23:38 13,8 C 13,3 C 12,8 C 83 % 0 lf 1016,7 hPa 0,0 l/m 0 min 0 min 0 W/m 8,4 km/h (2 Bft) 97,87 %
06.09.2017 23:40 13,8 C 13,3 C 12,8 C 83 % 0 lf 1016,8 hPa 0,0 l/m 0 min 0 min 0 W/m 6,3 km/h (2 Bft) 100,00 %
06.09.2017 23:42 13,8 C 13,3 C 12,8 C 83 % 0 lf 1016,8 hPa 0,0 l/m 0 min 0 min 0 W/m 6,3 km/h (2 Bft) 100,00 %
06.09.2017 23:44 13,8 C 13,3 C 12,8 C 84 % 0 lf 1016,8 hPa 0,0 l/m 0 min 0 min 0 W/m 6,3 km/h (2 Bft) 100,00 %
06.09.2017 23:45 13,7 C 13,3 C 12,2 C 84 % 0 lf 1016,7 hPa 0,0 l/m 0 min 0 min 0 W/m 8,4 km/h (2 Bft) 100,00 %
06.09.2017 23:48 13,8 C 13,3 C 12,2 C 84 % 0 lf 1016,7 hPa 0,0 l/m 0 min 0 min 0 W/m 6,3 km/h (2 Bft) 100,00 %
06.09.2017 23:50 13,7 C 13,3 C 12,8 C 84 % 0 lf 1016,7 hPa 0,0 l/m 0 min 0 min 0 W/m 12,6 km/h (3 Bft) 100,00 %
06.09.2017 23:52 13,7 C 13,3 C 12,8 C 84 % 0 lf 1016,7 hPa 0,0 l/m 0 min 0 min 0 W/m 10,5 km/h (2 Bft) 100,00 %
06.09.2017 23:54 13,7 C 13,3 C 12,8 C 84 % 0 lf 1016,7 hPa 0,0 l/m 0 min 0 min 0 W/m 10,5 km/h (2 Bft) 100,00 %
06.09.2017 23:56 13,8 C 13,3 C 12,8 C 84 % 0 lf 1016,7 hPa 0,0 l/m 0 min 0 min 0 W/m 8,4 km/h (2 Bft) 100,00 %
06.09.2017 23:58 13,7 C 13,3 C 12,8 C 84 % 0 lf 1016,8 hPa 0,0 l/m 0 min 0 min 0 W/m 10,5 km/h (2 Bft) 100,00 %
_ Min-Zeit 23:45 22:32 21:58 14:02 00:00 05:56 - - - - 00:42 12:45
Minimum _ 13,7 C 13,3 C 12,2 C 58 % 0 lf 1011,8 hPa - - - - 2,1 km/h (1 Bft) 77,19 %
_ Max-Zeit 13:58 11:42 11:42 08:06 05:28 21:48 05:38 12:10 05:28 12:06 09:30 01:26
Maximum _ 20,1 C 28,9 C 25,6 C 96 % 15 lf 1017,4 hPa 0,2 l/m 4 min 2 min 832 W/m 48,1 km/h
W-NW (6 Bft)
100,00 %
Durchschnitt _ 17,2 C 17,7 C 16,1 C 79 % 3 lf 1014,7 hPa #0,8 l/m #2:48 h #1:30 h 214 W/m 19,9 km/h (4 Bft) 96,48 %
© 2017 W. Hausmann